| time (UTC) | temp C | wind direction | speed KPH | gust KPH | rain 1hr cm | rain 24hr cm | rain mn cm | humidity % | barometer mb |
| 20260505174203 | 20 | 79 | 4.8 | 11.3 | 0.00 | 0.00 | 0.00 | 42 | 1076.9 |
| 20260505174103 | 20 | 79 | 4.8 | 11.3 | 0.00 | 0.00 | 0.00 | 42 | 1076.9 |
| 20260505174003 | 20 | 77 | 4.8 | 11.3 | 0.00 | 0.00 | 0.00 | 43 | 1076.9 |
| 20260505173903 | 20 | 76 | 4.8 | 11.3 | 0.00 | 0.00 | 0.00 | 42 | 1076.7 |
| 20260505173803 | 20 | 75 | 4.8 | 11.3 | 0.00 | 0.00 | 0.00 | 42 | 1076.9 |
| 20260505173703 | 20 | 73 | 4.8 | 9.7 | 0.00 | 0.00 | 0.00 | 42 | 1077.1 |
| 20260505173603 | 20 | 73 | 4.8 | 9.7 | 0.00 | 0.00 | 0.00 | 41 | 1077.0 |
| 20260505173503 | 20 | 72 | 4.8 | 9.7 | 0.00 | 0.00 | 0.00 | 41 | 1077.1 |
| 20260505173403 | 20 | 73 | 4.8 | 9.7 | 0.00 | 0.00 | 0.00 | 41 | 1077.1 |
| 20260505173303 | 20 | 75 | 3.2 | 9.7 | 0.00 | 0.00 | 0.00 | 41 | 1077.0 |
| 20260505173203 | 20 | 74 | 4.8 | 9.7 | 0.00 | 0.00 | 0.00 | 41 | 1076.9 |
| 20260505173103 | 20 | 72 | 4.8 | 12.9 | 0.00 | 0.00 | 0.00 | 41 | 1077.1 |
| 20260505173003 | 20 | 73 | 4.8 | 12.9 | 0.00 | 0.00 | 0.00 | 40 | 1077.0 |
| 20260505172903 | 20 | 74 | 3.2 | 12.9 | 0.00 | 0.00 | 0.00 | 40 | 1076.9 |
| 20260505172803 | 20 | 75 | 3.2 | 12.9 | 0.00 | 0.00 | 0.00 | 40 | 1077.0 |
| 20260505172703 | 20 | 74 | 4.8 | 12.9 | 0.00 | 0.00 | 0.00 | 40 | 1077.0 |
| 20260505172603 | 20 | 73 | 4.8 | 12.9 | 0.00 | 0.00 | 0.00 | 39 | 1077.0 |
| 20260505172503 | 20 | 72 | 3.2 | 12.9 | 0.00 | 0.00 | 0.00 | 39 | 1076.8 |
| 20260505172403 | 20 | 70 | 4.8 | 12.9 | 0.00 | 0.00 | 0.00 | 39 | 1077.0 |
| 20260505172305 | 20 | 69 | 4.8 | 12.9 | 0.00 | 0.00 | 0.00 | 39 | 1077.2 |
| 20260505172203 | 20 | 69 | 3.2 | 12.9 | 0.00 | 0.00 | 0.00 | 39 | 1077.1 |
| 20260505172103 | 20 | 72 | 3.2 | 9.7 | 0.00 | 0.00 | 0.00 | 39 | 1077.1 |
| 20260505172003 | 20 | 70 | 3.2 | 6.4 | 0.00 | 0.00 | 0.00 | 39 | 1077.1 |
| 20260505171903 | 20 | 70 | 3.2 | 6.4 | 0.00 | 0.00 | 0.00 | 39 | 1077.0 |
| 20260505171803 | 20 | 73 | 3.2 | 6.4 | 0.00 | 0.00 | 0.00 | 39 | 1077.1 |
| 20260505171703 | 20 | 72 | 3.2 | 9.7 | 0.00 | 0.00 | 0.00 | 39 | 1077.0 |
| 20260505171603 | 20 | 74 | 3.2 | 9.7 | 0.00 | 0.00 | 0.00 | 39 | 1077.0 |
| 20260505171503 | 20 | 74 | 3.2 | 9.7 | 0.00 | 0.00 | 0.00 | 38 | 1077.0 |
| 20260505171418 | 20 | 77 | 3.2 | 12.9 | 0.00 | 0.00 | 0.00 | 38 | 1077.0 |
| 20260505171403 | 20 | 78 | 3.2 | 12.9 | 0.00 | 0.00 | 0.00 | 38 | 1077.0 |
| 20260505171304 | 20 | 78 | 4.8 | 12.9 | 0.00 | 0.00 | 0.00 | 38 | 1076.9 |
| 20260505171103 | 20 | 81 | 4.8 | 12.9 | 0.00 | 0.00 | 0.00 | 39 | 1077.0 |
| 20260505171003 | 21 | 81 | 4.8 | 12.9 | 0.00 | 0.00 | 0.00 | 39 | 1077.1 |
| 20260505170903 | 21 | 77 | 6.4 | 16.1 | 0.00 | 0.00 | 0.00 | 38 | 1076.9 |
| 20260505170803 | 21 | 77 | 6.4 | 16.1 | 0.00 | 0.00 | 0.00 | 38 | 1077.1 |
| 20260505170703 | 21 | 78 | 6.4 | 16.1 | 0.00 | 0.00 | 0.00 | 38 | 1077.0 |
| 20260505170617 | 21 | 77 | 6.4 | 16.1 | 0.00 | 0.00 | 0.00 | 38 | 1077.0 |
| 20260505170503 | 21 | 77 | 6.4 | 16.1 | 0.00 | 0.00 | 0.00 | 38 | 1077.2 |
| 20260505170303 | 21 | 74 | 4.8 | 16.1 | 0.00 | 0.00 | 0.00 | 38 | 1077.2 |
| 20260505170203 | 21 | 73 | 4.8 | 16.1 | 0.00 | 0.00 | 0.00 | 38 | 1077.4 |
| 20260505170103 | 21 | 72 | 4.8 | 16.1 | 0.00 | 0.00 | 0.00 | 37 | 1077.4 |
| 20260505170003 | 21 | 73 | 4.8 | 16.1 | 0.00 | 0.00 | 0.00 | 38 | 1077.1 |
| 20260505165803 | 21 | 74 | 3.2 | 11.3 | 0.00 | 0.00 | 0.00 | 38 | 1077.2 |
| 20260505165703 | 21 | 75 | 3.2 | 11.3 | 0.00 | 0.00 | 0.00 | 38 | 1077.1 |
| 20260505165603 | 21 | 78 | 3.2 | 11.3 | 0.00 | 0.00 | 0.00 | 38 | 1077.1 |
| 20260505165503 | 21 | 79 | 3.2 | 11.3 | 0.00 | 0.00 | 0.00 | 38 | 1077.2 |
| 20260505165403 | 21 | 81 | 3.2 | 11.3 | 0.00 | 0.00 | 0.00 | 38 | 1077.1 |
| 20260505165305 | 21 | 82 | 3.2 | 11.3 | 0.00 | 0.00 | 0.00 | 38 | 1077.0 |
| 20260505165203 | 21 | 78 | 4.8 | 9.7 | 0.00 | 0.00 | 0.00 | 38 | 1076.8 |
| 20260505165118 | 21 | 78 | 4.8 | 9.7 | 0.00 | 0.00 | 0.00 | 38 | 1076.8 |
| 20260505165103 | 21 | 77 | 4.8 | 9.7 | 0.00 | 0.00 | 0.00 | 38 | 1077.0 |
| 20260505165003 | 21 | 71 | 4.8 | 11.3 | 0.00 | 0.00 | 0.00 | 38 | 1077.4 |
| 20260505164918 | 21 | 70 | 4.8 | 14.5 | 0.00 | 0.00 | 0.00 | 37 | 1077.4 |
| 20260505164803 | 21 | 69 | 6.4 | 14.5 | 0.00 | 0.00 | 0.00 | 38 | 1077.2 |
| 20260505164603 | 21 | 67 | 6.4 | 14.5 | 0.00 | 0.00 | 0.00 | 37 | 1077.2 |
| 20260505164503 | 21 | 65 | 6.4 | 14.5 | 0.00 | 0.00 | 0.00 | 37 | 1077.2 |
| 20260505164418 | 21 | 65 | 6.4 | 14.5 | 0.00 | 0.00 | 0.00 | 37 | 1077.2 |
| 20260505164403 | 21 | 65 | 6.4 | 14.5 | 0.00 | 0.00 | 0.00 | 37 | 1077.1 |
| 20260505164303 | 21 | 64 | 6.4 | 14.5 | 0.00 | 0.00 | 0.00 | 37 | 1077.2 |
| 20260505164103 | 21 | 68 | 6.4 | 14.5 | 0.00 | 0.00 | 0.00 | 37 | 1077.2 |
| 20260505164003 | 21 | 71 | 4.8 | 14.5 | 0.00 | 0.00 | 0.00 | 37 | 1077.4 |
| 20260505163917 | 21 | 75 | 4.8 | 12.9 | 0.00 | 0.00 | 0.00 | 37 | 1077.4 |
| 20260505163903 | 21 | 75 | 4.8 | 12.9 | 0.00 | 0.00 | 0.00 | 37 | 1077.5 |
| 20260505163803 | 21 | 79 | 6.4 | 20.9 | 0.00 | 0.00 | 0.00 | 37 | 1077.2 |
| 20260505163604 | 21 | 81 | 6.4 | 20.9 | 0.00 | 0.00 | 0.00 | 37 | 1077.5 |
| 20260505163503 | 21 | 84 | 6.4 | 20.9 | 0.00 | 0.00 | 0.00 | 37 | 1077.4 |
| 20260505163403 | 21 | 86 | 6.4 | 20.9 | 0.00 | 0.00 | 0.00 | 37 | 1077.4 |
| 20260505163317 | 21 | 86 | 6.4 | 20.9 | 0.00 | 0.00 | 0.00 | 37 | 1077.4 |
| 20260505163303 | 21 | 86 | 6.4 | 20.9 | 0.00 | 0.00 | 0.00 | 37 | 1077.2 |
| 20260505163217 | 21 | 87 | 8.0 | 20.9 | 0.00 | 0.00 | 0.00 | 37 | 1077.2 |
| 20260505163203 | 21 | 88 | 8.0 | 20.9 | 0.00 | 0.00 | 0.00 | 37 | 1077.6 |
| 20260505162903 | 21 | 87 | 8.0 | 20.9 | 0.00 | 0.00 | 0.00 | 36 | 1077.4 |
| 20260505162818 | 21 | 86 | 8.0 | 20.9 | 0.00 | 0.00 | 0.00 | 36 | 1077.4 |
| 20260505162803 | 21 | 85 | 8.0 | 16.1 | 0.00 | 0.00 | 0.00 | 36 | 1077.5 |
| 20260505162703 | 21 | 85 | 6.4 | 16.1 | 0.00 | 0.00 | 0.00 | 36 | 1077.2 |
| 20260505162503 | 21 | 85 | 6.4 | 16.1 | 0.00 | 0.00 | 0.00 | 37 | 1077.5 |
| 20260505162403 | 21 | 84 | 6.4 | 16.1 | 0.00 | 0.00 | 0.00 | 36 | 1077.5 |
| 20260505162306 | 21 | 84 | 6.4 | 16.1 | 0.00 | 0.00 | 0.00 | 36 | 1077.6 |
| 20260505162203 | 21 | 82 | 6.4 | 16.1 | 0.00 | 0.00 | 0.00 | 36 | 1077.7 |
| 20260505162103 | 21 | 83 | 6.4 | 16.1 | 0.00 | 0.00 | 0.00 | 37 | 1077.5 |
| 20260505162003 | 21 | 85 | 6.4 | 16.1 | 0.00 | 0.00 | 0.00 | 36 | 1077.6 |
| 20260505161903 | 21 | 85 | 6.4 | 16.1 | 0.00 | 0.00 | 0.00 | 37 | 1077.6 |
| 20260505161803 | 21 | 87 | 6.4 | 16.1 | 0.00 | 0.00 | 0.00 | 37 | 1077.6 |
| 20260505161703 | 21 | 86 | 8.0 | 16.1 | 0.00 | 0.00 | 0.00 | 36 | 1077.6 |
| 20260505161603 | 21 | 85 | 8.0 | 16.1 | 0.00 | 0.00 | 0.00 | 36 | 1077.7 |
| 20260505161503 | 21 | 83 | 8.0 | 16.1 | 0.00 | 0.00 | 0.00 | 37 | 1077.6 |
| 20260505161403 | 21 | 84 | 8.0 | 16.1 | 0.00 | 0.00 | 0.00 | 36 | 1077.6 |
| 20260505161303 | 21 | 83 | 8.0 | 16.1 | 0.00 | 0.00 | 0.00 | 35 | 1077.6 |
| 20260505161203 | 21 | 83 | 8.0 | 16.1 | 0.00 | 0.00 | 0.00 | 35 | 1077.8 |
| 20260505161103 | 22 | 82 | 8.0 | 16.1 | 0.00 | 0.00 | 0.00 | 35 | 1077.6 |
| 20260505161003 | 22 | 81 | 6.4 | 16.1 | 0.00 | 0.00 | 0.00 | 35 | 1077.6 |
| 20260505160903 | 22 | 82 | 6.4 | 16.1 | 0.00 | 0.00 | 0.00 | 35 | 1077.8 |
| 20260505160803 | 22 | 81 | 6.4 | 16.1 | 0.00 | 0.00 | 0.00 | 35 | 1077.7 |
| 20260505160703 | 22 | 83 | 6.4 | 20.9 | 0.00 | 0.00 | 0.00 | 35 | 1077.6 |
| 20260505160603 | 22 | 87 | 6.4 | 20.9 | 0.00 | 0.00 | 0.00 | 35 | 1077.8 |
| 20260505160503 | 22 | 88 | 8.0 | 27.4 | 0.00 | 0.00 | 0.00 | 35 | 1077.9 |
| 20260505160403 | 22 | 87 | 8.0 | 27.4 | 0.00 | 0.00 | 0.00 | 35 | 1077.7 |
| 20260505160303 | 22 | 89 | 8.0 | 27.4 | 0.00 | 0.00 | 0.00 | 35 | 1077.6 |
| 20260505160203 | 22 | 90 | 8.0 | 27.4 | 0.00 | 0.00 | 0.00 | 35 | 1077.6 |
| 20260505153303 | 23 | 91 | 9.7 | 24.1 | 0.00 | 0.00 | 0.00 | 35 | 1077.7 |
| 20260505153203 | 23 | 94 | 9.7 | 24.1 | 0.00 | 0.00 | 0.00 | 35 | 1077.7 |
| 20260505153118 | 23 | 92 | 11.3 | 24.1 | 0.00 | 0.00 | 0.00 | 35 | 1077.6 |
| 20260505153103 | 23 | 91 | 11.3 | 24.1 | 0.00 | 0.00 | 0.00 | 35 | 1077.6 |
| 20260505153003 | 23 | 87 | 9.7 | 24.1 | 0.00 | 0.00 | 0.00 | 35 | 1077.7 |
| 20260505152803 | 23 | 88 | 9.7 | 24.1 | 0.00 | 0.00 | 0.00 | 35 | 1077.7 |
| 20260505152703 | 23 | 89 | 8.0 | 22.5 | 0.00 | 0.00 | 0.00 | 35 | 1077.8 |
| 20260505152616 | 23 | 90 | 9.7 | 22.5 | 0.00 | 0.00 | 0.00 | 36 | 1077.9 |
| 20260505152604 | 23 | 90 | 9.7 | 22.5 | 0.00 | 0.00 | 0.00 | 36 | 1077.9 |
| 20260505152504 | 23 | 87 | 9.7 | 22.5 | 0.00 | 0.00 | 0.00 | 36 | 1077.7 |
| 20260505152418 | 23 | 89 | 9.7 | 22.5 | 0.00 | 0.00 | 0.00 | 36 | 1077.8 |
| 20260505152103 | 23 | 93 | 9.7 | 22.5 | 0.00 | 0.00 | 0.00 | 36 | 1077.8 |
| 20260505152003 | 23 | 98 | 11.3 | 22.5 | 0.00 | 0.00 | 0.00 | 36 | 1077.9 |
| 20260505151903 | 23 | 100 | 11.3 | 24.1 | 0.00 | 0.00 | 0.00 | 36 | 1077.8 |
| 20260505151803 | 23 | 101 | 12.9 | 24.1 | 0.00 | 0.00 | 0.00 | 37 | 1077.8 |
| 20260505151703 | 23 | 102 | 12.9 | 24.1 | 0.00 | 0.00 | 0.00 | 37 | 1077.9 |
| 20260505151603 | 23 | 102 | 12.9 | 24.1 | 0.00 | 0.00 | 0.00 | 37 | 1078.1 |
| 20260505151503 | 23 | 102 | 11.3 | 24.1 | 0.00 | 0.00 | 0.00 | 37 | 1077.8 |
| 20260505151403 | 23 | 100 | 11.3 | 24.1 | 0.00 | 0.00 | 0.00 | 37 | 1077.8 |
| 20260505151318 | 23 | 98 | 11.3 | 24.1 | 0.00 | 0.00 | 0.00 | 37 | 1078.0 |
| 20260505151303 | 23 | 99 | 11.3 | 24.1 | 0.00 | 0.00 | 0.00 | 37 | 1078.0 |
| 20260505151203 | 23 | 100 | 11.3 | 24.1 | 0.00 | 0.00 | 0.00 | 37 | 1078.0 |
| 20260505151117 | 23 | 98 | 9.7 | 24.1 | 0.00 | 0.00 | 0.00 | 37 | 1078.0 |
| 20260505151003 | 23 | 96 | 9.7 | 24.1 | 0.00 | 0.00 | 0.00 | 37 | 1078.1 |
| 20260505150803 | 23 | 96 | 8.0 | 22.5 | 0.00 | 0.00 | 0.00 | 37 | 1078.1 |
| 20260505150703 | 23 | 97 | 9.7 | 22.5 | 0.00 | 0.00 | 0.00 | 37 | 1077.9 |
| 20260505150603 | 23 | 97 | 9.7 | 22.5 | 0.00 | 0.00 | 0.00 | 38 | 1078.1 |
| 20260505150503 | 23 | 105 | 9.7 | 24.1 | 0.00 | 0.00 | 0.00 | 38 | 1077.8 |
| 20260505150403 | 23 | 106 | 9.7 | 24.1 | 0.00 | 0.00 | 0.00 | 38 | 1077.9 |
| 20260505150303 | 23 | 107 | 9.7 | 24.1 | 0.00 | 0.00 | 0.00 | 37 | 1078.0 |
| 20260505150203 | 23 | 107 | 11.3 | 24.1 | 0.00 | 0.00 | 0.00 | 37 | 1077.9 |
| 20260505140618 | 23 | 90 | 12.9 | 27.4 | 0.00 | 0.00 | 0.00 | 41 | 1078.8 |
| 20260505140303 | 23 | 94 | 12.9 | 27.4 | 0.00 | 0.00 | 0.00 | 40 | 1078.7 |
| 20260505140203 | 23 | 93 | 12.9 | 27.4 | 0.00 | 0.00 | 0.00 | 41 | 1078.6 |
| 20260505130203 | 23 | 119 | 11.3 | 25.7 | 0.00 | 0.00 | 0.00 | 41 | 1079.3 |
| 20260505130103 | 23 | 115 | 11.3 | 25.7 | 0.00 | 0.00 | 0.00 | 41 | 1079.4 |
| 20260505124903 | 23 | 110 | 9.7 | 29.0 | 0.00 | 0.00 | 0.00 | 42 | 1079.5 |
| 20260505124818 | 23 | 112 | 9.7 | 29.0 | 0.00 | 0.00 | 0.00 | 42 | 1079.5 |
| 20260505124803 | 23 | 114 | 9.7 | 29.0 | 0.00 | 0.00 | 0.00 | 42 | 1079.5 |
| 20260505124503 | 23 | 131 | 9.7 | 24.1 | 0.00 | 0.00 | 0.00 | 42 | 1079.5 |
| 20260505124403 | 23 | 135 | 9.7 | 24.1 | 0.00 | 0.00 | 0.00 | 42 | 1079.6 |
| 20260505124303 | 23 | 132 | 9.7 | 20.9 | 0.00 | 0.00 | 0.00 | 43 | 1079.5 |
| 20260505124203 | 23 | 130 | 9.7 | 20.9 | 0.00 | 0.00 | 0.00 | 42 | 1079.6 |
| 20260505124103 | 23 | 131 | 9.7 | 20.9 | 0.00 | 0.00 | 0.00 | 42 | 1079.4 |
| 20260505124003 | 23 | 128 | 8.0 | 20.9 | 0.00 | 0.00 | 0.00 | 42 | 1079.5 |
| 20260505123918 | 23 | 130 | 8.0 | 20.9 | 0.00 | 0.00 | 0.00 | 43 | 1079.4 |
| 20260505123903 | 23 | 131 | 9.7 | 20.9 | 0.00 | 0.00 | 0.00 | 43 | 1079.4 |
| 20260505123803 | 23 | 130 | 9.7 | 20.9 | 0.00 | 0.00 | 0.00 | 43 | 1079.6 |
| 20260505123603 | 23 | 132 | 8.0 | 20.9 | 0.00 | 0.00 | 0.00 | 44 | 1079.5 |
| 20260505123503 | 23 | 129 | 8.0 | 20.9 | 0.00 | 0.00 | 0.00 | 43 | 1079.7 |
| 20260505123403 | 23 | 120 | 8.0 | 22.5 | 0.00 | 0.00 | 0.00 | 43 | 1079.6 |
| 20260505123303 | 23 | 115 | 8.0 | 22.5 | 0.00 | 0.00 | 0.00 | 43 | 1079.5 |
| 20260505123203 | 23 | 114 | 8.0 | 22.5 | 0.00 | 0.00 | 0.00 | 42 | 1079.5 |
| 20260505123103 | 23 | 113 | 8.0 | 22.5 | 0.00 | 0.00 | 0.00 | 44 | 1079.7 |
| 20260505123003 | 23 | 113 | 8.0 | 22.5 | 0.00 | 0.00 | 0.00 | 44 | 1079.6 |
| 20260505122903 | 23 | 112 | 8.0 | 22.5 | 0.00 | 0.00 | 0.00 | 43 | 1079.7 |
| 20260505122818 | 23 | 109 | 8.0 | 22.5 | 0.00 | 0.00 | 0.00 | 42 | 1079.7 |
| 20260505122803 | 23 | 109 | 8.0 | 22.5 | 0.00 | 0.00 | 0.00 | 42 | 1079.6 |
| 20260505122703 | 23 | 110 | 8.0 | 22.5 | 0.00 | 0.00 | 0.00 | 42 | 1079.5 |
| 20260505122618 | 23 | 109 | 8.0 | 22.5 | 0.00 | 0.00 | 0.00 | 42 | 1079.5 |
| 20260505122503 | 23 | 109 | 9.7 | 22.5 | 0.00 | 0.00 | 0.00 | 42 | 1079.9 |
| 20260505122305 | 23 | 113 | 9.7 | 24.1 | 0.00 | 0.00 | 0.00 | 41 | 1079.7 |
| 20260505122218 | 23 | 117 | 9.7 | 24.1 | 0.00 | 0.00 | 0.00 | 41 | 1079.7 |
| 20260505122203 | 23 | 118 | 11.3 | 24.1 | 0.00 | 0.00 | 0.00 | 42 | 1080.0 |
| 20260505122103 | 23 | 117 | 11.3 | 24.1 | 0.00 | 0.00 | 0.00 | 41 | 1079.8 |
| 20260505121903 | 23 | 119 | 11.3 | 24.1 | 0.00 | 0.00 | 0.00 | 42 | 1079.8 |
| 20260505121803 | 23 | 118 | 11.3 | 24.1 | 0.00 | 0.00 | 0.00 | 42 | 1079.7 |
| 20260505121703 | 23 | 115 | 11.3 | 24.1 | 0.00 | 0.00 | 0.00 | 42 | 1079.5 |
| 20260505121603 | 23 | 116 | 11.3 | 24.1 | 0.00 | 0.00 | 0.00 | 42 | 1079.9 |
| 20260505121503 | 23 | 115 | 11.3 | 24.1 | 0.00 | 0.00 | 0.00 | 42 | 1079.9 |
| 20260505121403 | 23 | 113 | 9.7 | 24.1 | 0.00 | 0.00 | 0.00 | 42 | 1079.8 |
| 20260505121303 | 23 | 114 | 9.7 | 22.5 | 0.00 | 0.00 | 0.00 | 42 | 1079.9 |
| 20260505121203 | 23 | 114 | 9.7 | 22.5 | 0.00 | 0.00 | 0.00 | 42 | 1079.7 |
| 20260505121103 | 23 | 114 | 9.7 | 22.5 | 0.00 | 0.00 | 0.00 | 42 | 1079.6 |
| 20260505121003 | 23 | 119 | 8.0 | 20.9 | 0.00 | 0.00 | 0.00 | 42 | 1079.8 |
| 20260505120903 | 23 | 116 | 8.0 | 20.9 | 0.00 | 0.00 | 0.00 | 42 | 1079.8 |
| 20260505120803 | 23 | 116 | 8.0 | 20.9 | 0.00 | 0.00 | 0.00 | 41 | 1079.5 |
| 20260505120703 | 23 | 112 | 8.0 | 20.9 | 0.00 | 0.00 | 0.00 | 42 | 1079.8 |
| 20260505120617 | 23 | 105 | 8.0 | 16.1 | 0.00 | 0.00 | 0.00 | 42 | 1079.8 |
| 20260505120603 | 23 | 104 | 8.0 | 16.1 | 0.00 | 0.00 | 0.00 | 42 | 1079.9 |
| 20260505120503 | 23 | 107 | 8.0 | 16.1 | 0.00 | 0.00 | 0.00 | 42 | 1079.5 |
| 20260505120303 | 23 | 102 | 8.0 | 16.1 | 0.00 | 0.00 | 0.00 | 42 | 1079.6 |
| 20260505120203 | 23 | 100 | 8.0 | 16.1 | 0.00 | 0.00 | 0.00 | 43 | 1079.6 |
| 20260505120103 | 23 | 100 | 9.7 | 17.7 | 0.00 | 0.00 | 0.00 | 41 | 1079.9 |
| 20260505120004 | 23 | 96 | 9.7 | 20.9 | 0.00 | 0.00 | 0.00 | 40 | 1079.7 |
| 20260505115903 | 23 | 98 | 9.7 | 20.9 | 0.00 | 0.00 | 0.00 | 40 | 1079.6 |
| 20260505115803 | 23 | 99 | 11.3 | 20.9 | 0.00 | 0.00 | 0.00 | 40 | 1079.9 |
| 20260505115703 | 23 | 103 | 11.3 | 20.9 | 0.00 | 0.00 | 0.00 | 40 | 1079.8 |
| 20260505115603 | 24 | 106 | 11.3 | 20.9 | 0.00 | 0.00 | 0.00 | 40 | 1079.8 |
| 20260505115503 | 24 | 105 | 11.3 | 20.9 | 0.00 | 0.00 | 0.00 | 39 | 1079.9 |
| 20260505115403 | 24 | 109 | 11.3 | 20.9 | 0.00 | 0.00 | 0.00 | 39 | 1079.9 |
| 20260505115305 | 24 | 110 | 11.3 | 24.1 | 0.00 | 0.00 | 0.00 | 39 | 1079.9 |
| 20260505115203 | 24 | 108 | 11.3 | 24.1 | 0.00 | 0.00 | 0.00 | 39 | 1079.8 |
| 20260505115103 | 25 | 108 | 11.3 | 24.1 | 0.00 | 0.00 | 0.00 | 39 | 1080.0 |
| 20260505115003 | 25 | 110 | 11.3 | 24.1 | 0.00 | 0.00 | 0.00 | 39 | 1079.8 |
| 20260505114903 | 25 | 110 | 9.7 | 24.1 | 0.00 | 0.00 | 0.00 | 38 | 1079.8 |
| 20260505114803 | 25 | 117 | 9.7 | 24.1 | 0.00 | 0.00 | 0.00 | 38 | 1079.9 |
| 20260505114703 | 25 | 121 | 8.0 | 24.1 | 0.00 | 0.00 | 0.00 | 39 | 1079.9 |
| 20260505114603 | 25 | 126 | 8.0 | 24.1 | 0.00 | 0.00 | 0.00 | 39 | 1080.0 |
| 20260505114503 | 25 | 124 | 9.7 | 24.1 | 0.00 | 0.00 | 0.00 | 39 | 1080.1 |
| 20260505114403 | 25 | 120 | 9.7 | 24.1 | 0.00 | 0.00 | 0.00 | 39 | 1079.8 |
| 20260505114303 | 25 | 117 | 8.0 | 24.1 | 0.00 | 0.00 | 0.00 | 39 | 1079.9 |
| 20260505114203 | 25 | 120 | 8.0 | 20.9 | 0.00 | 0.00 | 0.00 | 40 | 1080.0 |
| 20260505114103 | 25 | 122 | 8.0 | 20.9 | 0.00 | 0.00 | 0.00 | 39 | 1080.0 |
| 20260505114003 | 25 | 118 | 9.7 | 24.1 | 0.00 | 0.00 | 0.00 | 39 | 1079.9 |
| 20260505113903 | 25 | 113 | 9.7 | 24.1 | 0.00 | 0.00 | 0.00 | 39 | 1080.0 |
| 20260505113818 | 25 | 108 | 9.7 | 24.1 | 0.00 | 0.00 | 0.00 | 39 | 1080.0 |
| 20260505113803 | 25 | 107 | 9.7 | 24.1 | 0.00 | 0.00 | 0.00 | 39 | 1080.0 |
| 20260505113703 | 25 | 104 | 11.3 | 24.1 | 0.00 | 0.00 | 0.00 | 38 | 1079.9 |
| 20260505113503 | 25 | 101 | 9.7 | 24.1 | 0.00 | 0.00 | 0.00 | 38 | 1080.0 |
| 20260505113403 | 25 | 104 | 9.7 | 24.1 | 0.00 | 0.00 | 0.00 | 38 | 1079.9 |
| 20260505113303 | 25 | 103 | 11.3 | 24.1 | 0.00 | 0.00 | 0.00 | 39 | 1079.9 |
| 20260505113203 | 25 | 106 | 11.3 | 24.1 | 0.00 | 0.00 | 0.00 | 39 | 1080.1 |
| 20260505113103 | 25 | 106 | 11.3 | 24.1 | 0.00 | 0.00 | 0.00 | 39 | 1080.2 |
| 20260505113003 | 25 | 108 | 9.7 | 24.1 | 0.00 | 0.00 | 0.00 | 39 | 1079.8 |
| 20260505112917 | 25 | 112 | 9.7 | 24.1 | 0.00 | 0.00 | 0.00 | 38 | 1080.3 |
| 20260505112903 | 25 | 111 | 9.7 | 24.1 | 0.00 | 0.00 | 0.00 | 38 | 1080.3 |
| 20260505112803 | 25 | 111 | 9.7 | 24.1 | 0.00 | 0.00 | 0.00 | 38 | 1080.2 |
| 20260505112603 | 25 | 106 | 11.3 | 24.1 | 0.00 | 0.00 | 0.00 | 39 | 1080.2 |
| 20260505112503 | 25 | 108 | 9.7 | 24.1 | 0.00 | 0.00 | 0.00 | 39 | 1080.0 |
| 20260505112403 | 25 | 107 | 9.7 | 24.1 | 0.00 | 0.00 | 0.00 | 39 | 1080.0 |
| 20260505112305 | 25 | 108 | 9.7 | 20.9 | 0.00 | 0.00 | 0.00 | 39 | 1079.9 |
| 20260505112203 | 25 | 100 | 9.7 | 20.9 | 0.00 | 0.00 | 0.00 | 39 | 1080.0 |
| 20260505112103 | 25 | 99 | 9.7 | 20.9 | 0.00 | 0.00 | 0.00 | 38 | 1080.2 |
| 20260505112003 | 25 | 94 | 9.7 | 22.5 | 0.00 | 0.00 | 0.00 | 38 | 1080.0 |
| 20260505111903 | 25 | 92 | 9.7 | 22.5 | 0.00 | 0.00 | 0.00 | 39 | 1080.2 |
| 20260505111818 | 25 | 92 | 9.7 | 22.5 | 0.00 | 0.00 | 0.00 | 39 | 1080.0 |
| 20260505111803 | 25 | 92 | 9.7 | 22.5 | 0.00 | 0.00 | 0.00 | 39 | 1080.0 |
| 20260505111718 | 25 | 97 | 9.7 | 22.5 | 0.00 | 0.00 | 0.00 | 39 | 1080.0 |
| 20260505111703 | 25 | 100 | 9.7 | 22.5 | 0.00 | 0.00 | 0.00 | 39 | 1080.0 |
| 20260505111403 | 25 | 96 | 9.7 | 22.5 | 0.00 | 0.00 | 0.00 | 39 | 1080.2 |
| 20260505111303 | 25 | 94 | 9.7 | 22.5 | 0.00 | 0.00 | 0.00 | 39 | 1080.0 |
| 20260505111203 | 25 | 96 | 9.7 | 22.5 | 0.00 | 0.00 | 0.00 | 39 | 1080.1 |
| 20260505111103 | 25 | 92 | 9.7 | 22.5 | 0.00 | 0.00 | 0.00 | 39 | 1080.3 |
| 20260505111003 | 25 | 91 | 9.7 | 20.9 | 0.00 | 0.00 | 0.00 | 40 | 1080.0 |
| 20260505110903 | 25 | 89 | 9.7 | 24.1 | 0.00 | 0.00 | 0.00 | 39 | 1080.1 |
| 20260505110803 | 25 | 89 | 9.7 | 24.1 | 0.00 | 0.00 | 0.00 | 39 | 1080.0 |
| 20260505110703 | 25 | 88 | 9.7 | 24.1 | 0.00 | 0.00 | 0.00 | 39 | 1080.1 |
| 20260505110617 | 25 | 90 | 9.7 | 24.1 | 0.00 | 0.00 | 0.00 | 39 | 1080.0 |
| 20260505110603 | 25 | 90 | 9.7 | 24.1 | 0.00 | 0.00 | 0.00 | 39 | 1080.0 |
| 20260505110503 | 25 | 91 | 9.7 | 24.1 | 0.00 | 0.00 | 0.00 | 38 | 1080.0 |
| 20260505110303 | 25 | 96 | 8.0 | 24.1 | 0.00 | 0.00 | 0.00 | 37 | 1080.1 |
| 20260505110203 | 25 | 101 | 9.7 | 24.1 | 0.00 | 0.00 | 0.00 | 37 | 1080.2 |
| 20260505102205 | 24 | 110 | 9.7 | 22.5 | 0.00 | 0.00 | 0.00 | 39 | 1080.4 |
| 20260505102103 | 24 | 110 | 9.7 | 22.5 | 0.00 | 0.00 | 0.00 | 39 | 1080.6 |
| 20260505102003 | 24 | 108 | 9.7 | 17.7 | 0.00 | 0.00 | 0.00 | 39 | 1080.3 |
| 20260505101903 | 25 | 110 | 9.7 | 17.7 | 0.00 | 0.00 | 0.00 | 38 | 1080.3 |
| 20260505101803 | 25 | 111 | 9.7 | 20.9 | 0.00 | 0.00 | 0.00 | 38 | 1080.5 |
| 20260505101704 | 25 | 111 | 9.7 | 20.9 | 0.00 | 0.00 | 0.00 | 38 | 1080.4 |
| 20260505101603 | 25 | 107 | 9.7 | 20.9 | 0.00 | 0.00 | 0.00 | 38 | 1080.5 |
| 20260505101503 | 25 | 103 | 8.0 | 20.9 | 0.00 | 0.00 | 0.00 | 39 | 1080.4 |
| 20260505101403 | 24 | 106 | 9.7 | 20.9 | 0.00 | 0.00 | 0.00 | 39 | 1080.3 |
| 20260505101318 | 24 | 110 | 9.7 | 20.9 | 0.00 | 0.00 | 0.00 | 39 | 1080.3 |
| 20260505101303 | 24 | 109 | 9.7 | 20.9 | 0.00 | 0.00 | 0.00 | 39 | 1080.4 |
| 20260505101203 | 24 | 110 | 9.7 | 20.9 | 0.00 | 0.00 | 0.00 | 39 | 1080.5 |
| 20260505101018 | 24 | 108 | 9.7 | 20.9 | 0.00 | 0.00 | 0.00 | 38 | 1080.3 |
| 20260505101003 | 24 | 107 | 9.7 | 20.9 | 0.00 | 0.00 | 0.00 | 38 | 1080.3 |
| 20260505100903 | 24 | 109 | 9.7 | 22.5 | 0.00 | 0.00 | 0.00 | 38 | 1080.4 |
| 20260505100718 | 24 | 107 | 9.7 | 22.5 | 0.00 | 0.00 | 0.00 | 39 | 1080.5 |
| 20260505100703 | 24 | 106 | 9.7 | 22.5 | 0.00 | 0.00 | 0.00 | 39 | 1080.4 |
| 20260505100603 | 24 | 108 | 9.7 | 22.5 | 0.00 | 0.00 | 0.00 | 38 | 1080.4 |
| 20260505100517 | 24 | 110 | 9.7 | 22.5 | 0.00 | 0.00 | 0.00 | 38 | 1080.4 |
| 20260505100403 | 24 | 110 | 8.0 | 22.5 | 0.00 | 0.00 | 0.00 | 39 | 1080.3 |
| 20260505100217 | 24 | 115 | 8.0 | 22.5 | 0.00 | 0.00 | 0.00 | 39 | 1080.5 |
| 20260505100203 | 24 | 116 | 8.0 | 22.5 | 0.00 | 0.00 | 0.00 | 39 | 1080.4 |
| 20260505095903 | 24 | 122 | 8.0 | 20.9 | 0.00 | 0.00 | 0.00 | 39 | 1080.4 |
| 20260505095803 | 24 | 119 | 8.0 | 17.7 | 0.00 | 0.00 | 0.00 | 39 | 1080.5 |
| 20260505095703 | 24 | 124 | 6.4 | 17.7 | 0.00 | 0.00 | 0.00 | 39 | 1080.5 |
| 20260505095603 | 25 | 122 | 8.0 | 17.7 | 0.00 | 0.00 | 0.00 | 39 | 1080.1 |
| 20260505095503 | 25 | 118 | 8.0 | 17.7 | 0.00 | 0.00 | 0.00 | 39 | 1080.3 |
| 20260505095403 | 25 | 113 | 6.4 | 17.7 | 0.00 | 0.00 | 0.00 | 39 | 1080.4 |
| 20260505095304 | 25 | 109 | 6.4 | 17.7 | 0.00 | 0.00 | 0.00 | 39 | 1080.3 |
| 20260505095203 | 25 | 106 | 6.4 | 17.7 | 0.00 | 0.00 | 0.00 | 39 | 1080.4 |
| 20260505095103 | 25 | 103 | 8.0 | 20.9 | 0.00 | 0.00 | 0.00 | 39 | 1080.4 |
| 20260505095018 | 25 | 103 | 8.0 | 20.9 | 0.00 | 0.00 | 0.00 | 39 | 1080.4 |
| 20260505095003 | 25 | 102 | 8.0 | 20.9 | 0.00 | 0.00 | 0.00 | 39 | 1080.4 |
| 20260505094903 | 24 | 99 | 8.0 | 20.9 | 0.00 | 0.00 | 0.00 | 40 | 1080.1 |
| 20260505094703 | 24 | 101 | 8.0 | 20.9 | 0.00 | 0.00 | 0.00 | 39 | 1080.2 |
| 20260505094603 | 24 | 103 | 8.0 | 20.9 | 0.00 | 0.00 | 0.00 | 39 | 1080.2 |
| 20260505094503 | 24 | 106 | 8.0 | 20.9 | 0.00 | 0.00 | 0.00 | 40 | 1080.5 |
| 20260505094403 | 24 | 107 | 9.7 | 20.9 | 0.00 | 0.00 | 0.00 | 39 | 1080.3 |
| 20260505094303 | 24 | 112 | 9.7 | 20.9 | 0.00 | 0.00 | 0.00 | 38 | 1080.5 |
| 20260505094203 | 24 | 117 | 9.7 | 20.9 | 0.00 | 0.00 | 0.00 | 39 | 1080.5 |
| 20260505094103 | 24 | 115 | 9.7 | 20.9 | 0.00 | 0.00 | 0.00 | 38 | 1080.4 |
| 20260505094003 | 24 | 117 | 8.0 | 20.9 | 0.00 | 0.00 | 0.00 | 38 | 1080.6 |
| 20260505093903 | 24 | 115 | 8.0 | 20.9 | 0.00 | 0.00 | 0.00 | 39 | 1080.4 |
| 20260505093803 | 24 | 111 | 8.0 | 20.9 | 0.00 | 0.00 | 0.00 | 39 | 1080.4 |
| 20260505093703 | 24 | 111 | 8.0 | 20.9 | 0.00 | 0.00 | 0.00 | 39 | 1080.5 |
| 20260505093603 | 24 | 111 | 8.0 | 20.9 | 0.00 | 0.00 | 0.00 | 39 | 1080.3 |
| 20260505093503 | 24 | 111 | 8.0 | 20.9 | 0.00 | 0.00 | 0.00 | 38 | 1080.3 |
| 20260505093403 | 24 | 112 | 9.7 | 20.9 | 0.00 | 0.00 | 0.00 | 38 | 1080.3 |
| 20260505093303 | 24 | 106 | 8.0 | 17.7 | 0.00 | 0.00 | 0.00 | 38 | 1080.6 |
| 20260505093203 | 24 | 98 | 8.0 | 17.7 | 0.00 | 0.00 | 0.00 | 38 | 1080.6 |
| 20260505093103 | 24 | 100 | 9.7 | 17.7 | 0.00 | 0.00 | 0.00 | 38 | 1080.5 |
| 20260505093003 | 24 | 102 | 9.7 | 20.9 | 0.00 | 0.00 | 0.00 | 38 | 1080.6 |
| 20260505092903 | 24 | 105 | 9.7 | 20.9 | 0.00 | 0.00 | 0.00 | 39 | 1080.5 |
| 20260505092803 | 24 | 108 | 9.7 | 20.9 | 0.00 | 0.00 | 0.00 | 38 | 1080.4 |
| 20260505092718 | 24 | 109 | 11.3 | 24.1 | 0.00 | 0.00 | 0.00 | 38 | 1080.5 |
| 20260505092703 | 24 | 109 | 11.3 | 24.1 | 0.00 | 0.00 | 0.00 | 38 | 1080.5 |
| 20260505092618 | 24 | 112 | 11.3 | 24.1 | 0.00 | 0.00 | 0.00 | 38 | 1080.6 |
| 20260505092603 | 24 | 112 | 11.3 | 24.1 | 0.00 | 0.00 | 0.00 | 38 | 1080.6 |
| 20260505092305 | 24 | 113 | 11.3 | 24.1 | 0.00 | 0.00 | 0.00 | 39 | 1080.6 |
| 20260505092217 | 24 | 115 | 11.3 | 24.1 | 0.00 | 0.00 | 0.00 | 38 | 1080.4 |
| 20260505092203 | 24 | 116 | 11.3 | 24.1 | 0.00 | 0.00 | 0.00 | 38 | 1080.4 |
| 20260505092103 | 24 | 117 | 9.7 | 24.1 | 0.00 | 0.00 | 0.00 | 37 | 1080.5 |
| 20260505091903 | 24 | 115 | 9.7 | 24.1 | 0.00 | 0.00 | 0.00 | 38 | 1080.4 |
| 20260505091803 | 24 | 113 | 9.7 | 24.1 | 0.00 | 0.00 | 0.00 | 37 | 1080.5 |
| 20260505091703 | 24 | 114 | 8.0 | 20.9 | 0.00 | 0.00 | 0.00 | 38 | 1080.4 |
| 20260505091603 | 24 | 109 | 8.0 | 16.1 | 0.00 | 0.00 | 0.00 | 39 | 1080.4 |
| 20260505091503 | 24 | 106 | 6.4 | 16.1 | 0.00 | 0.00 | 0.00 | 39 | 1080.6 |
| 20260505091403 | 24 | 104 | 6.4 | 16.1 | 0.00 | 0.00 | 0.00 | 38 | 1080.3 |
| 20260505091303 | 24 | 100 | 8.0 | 17.7 | 0.00 | 0.00 | 0.00 | 38 | 1080.5 |
| 20260505091203 | 24 | 97 | 8.0 | 17.7 | 0.00 | 0.00 | 0.00 | 37 | 1080.5 |
| 20260505091003 | 24 | 92 | 8.0 | 17.7 | 0.00 | 0.00 | 0.00 | 39 | 1080.6 |
| 20260505090903 | 24 | 94 | 8.0 | 17.7 | 0.00 | 0.00 | 0.00 | 38 | 1080.5 |
| 20260505090803 | 24 | 103 | 8.0 | 22.5 | 0.00 | 0.00 | 0.00 | 38 | 1080.7 |
| 20260505090603 | 23 | 104 | 9.7 | 22.5 | 0.00 | 0.00 | 0.00 | 39 | 1080.5 |
| 20260505090503 | 23 | 106 | 11.3 | 22.5 | 0.00 | 0.00 | 0.00 | 39 | 1080.6 |
| 20260505090403 | 23 | 106 | 11.3 | 22.5 | 0.00 | 0.00 | 0.00 | 39 | 1080.4 |
| 20260505090303 | 23 | 110 | 11.3 | 22.5 | 0.00 | 0.00 | 0.00 | 39 | 1080.9 |
| 20260505090203 | 23 | 110 | 11.3 | 22.5 | 0.00 | 0.00 | 0.00 | 39 | 1080.7 |
| 20260505090003 | 23 | 110 | 11.3 | 25.7 | 0.00 | 0.00 | 0.00 | 39 | 1080.5 |
| 20260505085903 | 23 | 112 | 11.3 | 25.7 | 0.00 | 0.00 | 0.00 | 38 | 1080.5 |
| 20260505085803 | 23 | 108 | 11.3 | 25.7 | 0.00 | 0.00 | 0.00 | 39 | 1080.5 |
| 20260505085703 | 23 | 106 | 11.3 | 25.7 | 0.00 | 0.00 | 0.00 | 39 | 1080.4 |
| 20260505085603 | 23 | 107 | 11.3 | 25.7 | 0.00 | 0.00 | 0.00 | 39 | 1080.7 |
| 20260505085403 | 23 | 107 | 11.3 | 25.7 | 0.00 | 0.00 | 0.00 | 39 | 1080.3 |
| 20260505085304 | 23 | 106 | 11.3 | 25.7 | 0.00 | 0.00 | 0.00 | 39 | 1080.5 |
| 20260505085219 | 23 | 107 | 9.7 | 25.7 | 0.00 | 0.00 | 0.00 | 39 | 1080.6 |
| 20260505085203 | 23 | 109 | 9.7 | 25.7 | 0.00 | 0.00 | 0.00 | 38 | 1080.6 |
| 20260505085103 | 23 | 112 | 9.7 | 25.7 | 0.00 | 0.00 | 0.00 | 38 | 1080.6 |
| 20260505084918 | 23 | 109 | 9.7 | 22.5 | 0.00 | 0.00 | 0.00 | 38 | 1080.5 |
| 20260505084903 | 23 | 109 | 9.7 | 22.5 | 0.00 | 0.00 | 0.00 | 39 | 1080.5 |
| 20260505084803 | 23 | 108 | 9.7 | 20.9 | 0.00 | 0.00 | 0.00 | 39 | 1080.5 |
| 20260505084603 | 23 | 106 | 9.7 | 20.9 | 0.00 | 0.00 | 0.00 | 39 | 1080.6 |
| 20260505084503 | 23 | 104 | 9.7 | 20.9 | 0.00 | 0.00 | 0.00 | 40 | 1080.4 |
| 20260505084403 | 23 | 105 | 9.7 | 20.9 | 0.00 | 0.00 | 0.00 | 39 | 1080.3 |
| 20260505084303 | 23 | 105 | 11.3 | 20.9 | 0.00 | 0.00 | 0.00 | 39 | 1080.5 |
| 20260505084203 | 23 | 101 | 11.3 | 20.9 | 0.00 | 0.00 | 0.00 | 39 | 1080.6 |
| 20260505084103 | 23 | 98 | 11.3 | 20.9 | 0.00 | 0.00 | 0.00 | 39 | 1080.7 |
| 20260505084003 | 23 | 96 | 11.3 | 20.9 | 0.00 | 0.00 | 0.00 | 39 | 1080.5 |
| 20260505083903 | 23 | 90 | 11.3 | 20.9 | 0.00 | 0.00 | 0.00 | 38 | 1080.6 |
| 20260505083803 | 23 | 88 | 11.3 | 20.9 | 0.00 | 0.00 | 0.00 | 38 | 1080.6 |
| 20260505083703 | 23 | 86 | 9.7 | 20.9 | 0.00 | 0.00 | 0.00 | 38 | 1080.6 |
| 20260505083603 | 23 | 87 | 9.7 | 20.9 | 0.00 | 0.00 | 0.00 | 38 | 1080.6 |
| 20260505083503 | 23 | 87 | 9.7 | 20.9 | 0.00 | 0.00 | 0.00 | 39 | 1080.5 |
| 20260505083403 | 23 | 87 | 9.7 | 20.9 | 0.00 | 0.00 | 0.00 | 40 | 1080.4 |
| 20260505083303 | 23 | 89 | 9.7 | 20.9 | 0.00 | 0.00 | 0.00 | 39 | 1080.5 |
| 20260505083203 | 23 | 92 | 8.0 | 20.9 | 0.00 | 0.00 | 0.00 | 39 | 1080.7 |
| 20260505083103 | 23 | 92 | 8.0 | 20.9 | 0.00 | 0.00 | 0.00 | 39 | 1080.7 |
| 20260505083018 | 23 | 94 | 8.0 | 20.9 | 0.00 | 0.00 | 0.00 | 39 | 1080.7 |
| 20260505083003 | 23 | 94 | 8.0 | 20.9 | 0.00 | 0.00 | 0.00 | 40 | 1080.6 |
| 20260505082903 | 22 | 103 | 8.0 | 20.9 | 0.00 | 0.00 | 0.00 | 40 | 1080.7 |
| 20260505082817 | 22 | 108 | 8.0 | 14.5 | 0.00 | 0.00 | 0.00 | 40 | 1080.7 |
| 20260505082703 | 22 | 111 | 8.0 | 14.5 | 0.00 | 0.00 | 0.00 | 40 | 1080.4 |
| 20260505082503 | 22 | 117 | 8.0 | 16.1 | 0.00 | 0.00 | 0.00 | 39 | 1080.8 |
| 20260505082403 | 22 | 117 | 8.0 | 16.1 | 0.00 | 0.00 | 0.00 | 39 | 1080.6 |
| 20260505082304 | 22 | 115 | 8.0 | 16.1 | 0.00 | 0.00 | 0.00 | 39 | 1080.5 |
| 20260505082203 | 22 | 120 | 8.0 | 16.1 | 0.00 | 0.00 | 0.00 | 40 | 1080.8 |
| 20260505082103 | 22 | 123 | 8.0 | 16.1 | 0.00 | 0.00 | 0.00 | 40 | 1080.5 |
| 20260505082003 | 22 | 121 | 9.7 | 16.1 | 0.00 | 0.00 | 0.00 | 40 | 1080.5 |
| 20260505081903 | 22 | 116 | 9.7 | 16.1 | 0.00 | 0.00 | 0.00 | 39 | 1080.6 |
| 20260505081803 | 22 | 110 | 9.7 | 16.1 | 0.00 | 0.00 | 0.00 | 39 | 1080.8 |
| 20260505081717 | 22 | 106 | 9.7 | 16.1 | 0.00 | 0.00 | 0.00 | 39 | 1080.8 |
| 20260505081703 | 22 | 105 | 9.7 | 16.1 | 0.00 | 0.00 | 0.00 | 39 | 1080.4 |
| 20260505081603 | 22 | 101 | 9.7 | 16.1 | 0.00 | 0.00 | 0.00 | 39 | 1080.7 |
| 20260505081403 | 22 | 92 | 9.7 | 16.1 | 0.00 | 0.00 | 0.00 | 40 | 1080.8 |
| 20260505081303 | 22 | 94 | 9.7 | 22.5 | 0.00 | 0.00 | 0.00 | 41 | 1080.5 |
| 20260505081203 | 22 | 89 | 9.7 | 22.5 | 0.00 | 0.00 | 0.00 | 40 | 1080.5 |
| 20260505081103 | 22 | 87 | 8.0 | 22.5 | 0.00 | 0.00 | 0.00 | 40 | 1080.7 |
| 20260505081003 | 22 | 92 | 8.0 | 22.5 | 0.00 | 0.00 | 0.00 | 40 | 1080.4 |
| 20260505080903 | 22 | 98 | 9.7 | 22.5 | 0.00 | 0.00 | 0.00 | 40 | 1080.5 |
| 20260505080817 | 22 | 102 | 8.0 | 22.5 | 0.00 | 0.00 | 0.00 | 41 | 1080.6 |
| 20260505080803 | 22 | 104 | 8.0 | 22.5 | 0.00 | 0.00 | 0.00 | 41 | 1080.6 |
| 20260505080717 | 22 | 110 | 8.0 | 22.5 | 0.00 | 0.00 | 0.00 | 40 | 1080.7 |
| 20260505080704 | 22 | 112 | 8.0 | 22.5 | 0.00 | 0.00 | 0.00 | 40 | 1080.7 |
| 20260505080518 | 22 | 121 | 8.0 | 22.5 | 0.00 | 0.00 | 0.00 | 40 | 1080.6 |
| 20260505080417 | 22 | 124 | 8.0 | 22.5 | 0.00 | 0.00 | 0.00 | 40 | 1080.8 |
| 20260505080403 | 22 | 124 | 8.0 | 22.5 | 0.00 | 0.00 | 0.00 | 40 | 1080.8 |
| 20260505080103 | 22 | 114 | 8.0 | 20.9 | 0.00 | 0.00 | 0.00 | 40 | 1080.8 |
| 20260505080003 | 22 | 110 | 8.0 | 20.9 | 0.00 | 0.00 | 0.00 | 41 | 1080.7 |
| 20260505075903 | 22 | 106 | 8.0 | 14.5 | 0.00 | 0.00 | 0.00 | 40 | 1080.7 |
| 20260505075803 | 22 | 105 | 8.0 | 14.5 | 0.00 | 0.00 | 0.00 | 40 | 1080.7 |
| 20260505075703 | 22 | 101 | 8.0 | 14.5 | 0.00 | 0.00 | 0.00 | 40 | 1080.7 |
| 20260505075603 | 22 | 100 | 8.0 | 14.5 | 0.00 | 0.00 | 0.00 | 40 | 1080.7 |
| 20260505075518 | 21 | 100 | 8.0 | 14.5 | 0.00 | 0.00 | 0.00 | 41 | 1080.6 |
| 20260505075503 | 21 | 100 | 8.0 | 14.5 | 0.00 | 0.00 | 0.00 | 41 | 1080.6 |
| 20260505075403 | 21 | 99 | 8.0 | 14.5 | 0.00 | 0.00 | 0.00 | 41 | 1080.9 |
| 20260505075218 | 21 | 97 | 6.4 | 14.5 | 0.00 | 0.00 | 0.00 | 40 | 1080.9 |
| 20260505075203 | 21 | 97 | 6.4 | 14.5 | 0.00 | 0.00 | 0.00 | 40 | 1080.9 |
| 20260505075116 | 21 | 93 | 8.0 | 16.1 | 0.00 | 0.00 | 0.00 | 40 | 1081.2 |
| 20260505075103 | 21 | 92 | 8.0 | 16.1 | 0.00 | 0.00 | 0.00 | 40 | 1081.2 |
| 20260505074803 | 21 | 81 | 6.4 | 16.1 | 0.00 | 0.00 | 0.00 | 41 | 1080.9 |
| 20260505074703 | 21 | 76 | 6.4 | 16.1 | 0.00 | 0.00 | 0.00 | 41 | 1080.8 |
| 20260505074603 | 21 | 74 | 8.0 | 16.1 | 0.00 | 0.00 | 0.00 | 40 | 1080.7 |
| 20260505074503 | 21 | 69 | 8.0 | 16.1 | 0.00 | 0.00 | 0.00 | 40 | 1080.9 |
| 20260505074403 | 21 | 68 | 8.0 | 16.1 | 0.00 | 0.00 | 0.00 | 40 | 1080.7 |
| 20260505074303 | 21 | 69 | 8.0 | 16.1 | 0.00 | 0.00 | 0.00 | 40 | 1080.9 |
| 20260505074203 | 21 | 69 | 8.0 | 16.1 | 0.00 | 0.00 | 0.00 | 41 | 1080.9 |
| 20260505074103 | 21 | 75 | 8.0 | 16.1 | 0.00 | 0.00 | 0.00 | 40 | 1080.6 |
| 20260505074003 | 21 | 82 | 8.0 | 22.5 | 0.00 | 0.00 | 0.00 | 40 | 1080.8 |
| 20260505073903 | 21 | 84 | 8.0 | 22.5 | 0.00 | 0.00 | 0.00 | 41 | 1081.1 |
| 20260505073803 | 21 | 85 | 8.0 | 22.5 | 0.00 | 0.00 | 0.00 | 41 | 1080.7 |
| 20260505073703 | 21 | 85 | 9.7 | 22.5 | 0.00 | 0.00 | 0.00 | 41 | 1080.8 |
| 20260505073603 | 21 | 89 | 9.7 | 22.5 | 0.00 | 0.00 | 0.00 | 40 | 1080.9 |
| 20260505073403 | 21 | 93 | 9.7 | 22.5 | 0.00 | 0.00 | 0.00 | 41 | 1080.8 |
| 20260505073303 | 21 | 95 | 9.7 | 22.5 | 0.00 | 0.00 | 0.00 | 41 | 1080.9 |
| 20260505073203 | 21 | 97 | 9.7 | 22.5 | 0.00 | 0.00 | 0.00 | 40 | 1081.1 |
| 20260505073117 | 21 | 94 | 9.7 | 22.5 | 0.00 | 0.00 | 0.00 | 40 | 1080.8 |
| 20260505073103 | 21 | 93 | 9.7 | 22.5 | 0.00 | 0.00 | 0.00 | 40 | 1080.8 |
| 20260505073003 | 20 | 89 | 9.7 | 20.9 | 0.00 | 0.00 | 0.00 | 41 | 1080.7 |
| 20260505072818 | 20 | 88 | 9.7 | 20.9 | 0.00 | 0.00 | 0.00 | 42 | 1080.8 |
| 20260505072803 | 20 | 89 | 9.7 | 20.9 | 0.00 | 0.00 | 0.00 | 41 | 1080.8 |
| 20260505072703 | 20 | 93 | 9.7 | 20.9 | 0.00 | 0.00 | 0.00 | 42 | 1080.7 |
| 20260505072518 | 20 | 98 | 9.7 | 20.9 | 0.00 | 0.00 | 0.00 | 42 | 1080.7 |
| 20260505072503 | 20 | 99 | 9.7 | 20.9 | 0.00 | 0.00 | 0.00 | 42 | 1080.7 |
| 20260505072403 | 20 | 99 | 9.7 | 20.9 | 0.00 | 0.00 | 0.00 | 42 | 1080.7 |
| 20260505072317 | 20 | 98 | 9.7 | 20.9 | 0.00 | 0.00 | 0.00 | 42 | 1080.7 |
| 20260505072218 | 20 | 97 | 9.7 | 20.9 | 0.00 | 0.00 | 0.00 | 42 | 1080.7 |
| 20260505072203 | 20 | 98 | 9.7 | 20.9 | 0.00 | 0.00 | 0.00 | 42 | 1080.7 |
| 20260505071903 | 20 | 107 | 9.7 | 20.9 | 0.00 | 0.00 | 0.00 | 42 | 1080.8 |
| 20260505071803 | 20 | 107 | 9.7 | 20.9 | 0.00 | 0.00 | 0.00 | 42 | 1080.9 |
| 20260505071717 | 20 | 106 | 9.7 | 17.7 | 0.00 | 0.00 | 0.00 | 41 | 1080.9 |
| 20260505071703 | 20 | 105 | 9.7 | 17.7 | 0.00 | 0.00 | 0.00 | 41 | 1080.9 |
| 20260505071603 | 20 | 106 | 9.7 | 17.7 | 0.00 | 0.00 | 0.00 | 41 | 1080.8 |
| 20260505071518 | 20 | 107 | 9.7 | 20.9 | 0.00 | 0.00 | 0.00 | 41 | 1080.7 |
| 20260505071416 | 20 | 107 | 9.7 | 20.9 | 0.00 | 0.00 | 0.00 | 41 | 1080.9 |
| 20260505071403 | 20 | 108 | 9.7 | 20.9 | 0.00 | 0.00 | 0.00 | 41 | 1080.9 |
| 20260505071103 | 20 | 110 | 9.7 | 22.5 | 0.00 | 0.00 | 0.00 | 42 | 1081.1 |
| 20260505071003 | 20 | 103 | 9.7 | 22.5 | 0.00 | 0.00 | 0.00 | 42 | 1080.7 |
| 20260505070903 | 19 | 101 | 9.7 | 22.5 | 0.00 | 0.00 | 0.00 | 43 | 1080.9 |
| 20260505070803 | 19 | 99 | 9.7 | 22.5 | 0.00 | 0.00 | 0.00 | 43 | 1081.1 |
| 20260505070703 | 19 | 98 | 9.7 | 22.5 | 0.00 | 0.00 | 0.00 | 43 | 1081.1 |
| 20260505070603 | 19 | 93 | 9.7 | 22.5 | 0.00 | 0.00 | 0.00 | 43 | 1081.1 |
| 20260505070503 | 19 | 89 | 9.7 | 22.5 | 0.00 | 0.00 | 0.00 | 43 | 1081.1 |
| 20260505070416 | 19 | 87 | 9.7 | 22.5 | 0.00 | 0.00 | 0.00 | 43 | 1081.1 |
| 20260505070403 | 19 | 86 | 9.7 | 22.5 | 0.00 | 0.00 | 0.00 | 43 | 1081.1 |
| 20260505070303 | 19 | 84 | 11.3 | 22.5 | 0.00 | 0.00 | 0.00 | 43 | 1081.1 |
| 20260505070218 | 19 | 82 | 11.3 | 22.5 | 0.00 | 0.00 | 0.00 | 42 | 1081.2 |
| 20260505065903 | 18 | 75 | 9.7 | 17.7 | 0.00 | 0.00 | 0.00 | 43 | 1081.1 |
| 20260505065818 | 18 | 79 | 9.7 | 20.9 | 0.00 | 0.00 | 0.00 | 43 | 1081.2 |
| 20260505065803 | 18 | 79 | 9.7 | 20.9 | 0.00 | 0.00 | 0.00 | 43 | 1081.2 |
| 20260505065703 | 18 | 81 | 9.7 | 20.9 | 0.00 | 0.00 | 0.00 | 43 | 1081.3 |
| 20260505065617 | 19 | 80 | 9.7 | 20.9 | 0.00 | 0.00 | 0.00 | 43 | 1080.9 |
| 20260505065503 | 18 | 82 | 9.7 | 20.9 | 0.00 | 0.00 | 0.00 | 43 | 1081.1 |
| 20260505065304 | 18 | 85 | 8.0 | 20.9 | 0.00 | 0.00 | 0.00 | 43 | 1081.4 |
| 20260505065203 | 18 | 87 | 8.0 | 20.9 | 0.00 | 0.00 | 0.00 | 44 | 1081.2 |
| 20260505065103 | 18 | 90 | 8.0 | 20.9 | 0.00 | 0.00 | 0.00 | 45 | 1081.1 |
| 20260505065003 | 18 | 90 | 8.0 | 20.9 | 0.00 | 0.00 | 0.00 | 44 | 1081.3 |
| 20260505064917 | 18 | 91 | 8.0 | 20.9 | 0.00 | 0.00 | 0.00 | 44 | 1081.3 |
| 20260505064903 | 18 | 90 | 8.0 | 20.9 | 0.00 | 0.00 | 0.00 | 45 | 1081.4 |
| 20260505064803 | 18 | 87 | 8.0 | 17.7 | 0.00 | 0.00 | 0.00 | 46 | 1081.2 |
| 20260505064617 | 17 | 87 | 8.0 | 17.7 | 0.00 | 0.00 | 0.00 | 46 | 1080.9 |
| 20260505064603 | 17 | 85 | 6.4 | 17.7 | 0.00 | 0.00 | 0.00 | 46 | 1081.1 |
| 20260505064503 | 17 | 82 | 8.0 | 17.7 | 0.00 | 0.00 | 0.00 | 46 | 1081.3 |
| 20260505064303 | 17 | 79 | 6.4 | 17.7 | 0.00 | 0.00 | 0.00 | 47 | 1080.9 |
| 20260505064203 | 17 | 78 | 6.4 | 17.7 | 0.00 | 0.00 | 0.00 | 47 | 1081.2 |
| 20260505064103 | 17 | 75 | 6.4 | 17.7 | 0.00 | 0.00 | 0.00 | 47 | 1081.3 |
| 20260505064003 | 17 | 77 | 6.4 | 17.7 | 0.00 | 0.00 | 0.00 | 47 | 1081.1 |
| 20260505063903 | 16 | 80 | 6.4 | 17.7 | 0.00 | 0.00 | 0.00 | 48 | 1081.2 |
| 20260505063803 | 16 | 82 | 6.4 | 17.7 | 0.00 | 0.00 | 0.00 | 48 | 1080.9 |
| 20260505063703 | 16 | 83 | 6.4 | 17.7 | 0.00 | 0.00 | 0.00 | 48 | 1081.2 |
| 20260505063603 | 16 | 83 | 6.4 | 17.7 | 0.00 | 0.00 | 0.00 | 48 | 1081.3 |
| 20260505063518 | 16 | 86 | 6.4 | 17.7 | 0.00 | 0.00 | 0.00 | 48 | 1081.3 |
| 20260505063503 | 16 | 87 | 6.4 | 17.7 | 0.00 | 0.00 | 0.00 | 48 | 1081.4 |
| 20260505063403 | 16 | 90 | 6.4 | 17.7 | 0.00 | 0.00 | 0.00 | 48 | 1081.2 |
| 20260505063203 | 16 | 96 | 6.4 | 16.1 | 0.00 | 0.00 | 0.00 | 48 | 1081.2 |
| 20260505063103 | 16 | 97 | 6.4 | 16.1 | 0.00 | 0.00 | 0.00 | 48 | 1081.2 |
| 20260505063003 | 16 | 99 | 6.4 | 16.1 | 0.00 | 0.00 | 0.00 | 48 | 1081.1 |
| 20260505062903 | 16 | 101 | 6.4 | 16.1 | 0.00 | 0.00 | 0.00 | 48 | 1081.2 |
| 20260505062803 | 16 | 103 | 6.4 | 16.1 | 0.00 | 0.00 | 0.00 | 48 | 1081.1 |
| 20260505062703 | 16 | 101 | 6.4 | 16.1 | 0.00 | 0.00 | 0.00 | 48 | 1081.2 |
| 20260505062603 | 16 | 101 | 6.4 | 16.1 | 0.00 | 0.00 | 0.00 | 48 | 1081.4 |
| 20260505062503 | 16 | 100 | 8.0 | 16.1 | 0.00 | 0.00 | 0.00 | 48 | 1081.1 |
| 20260505062403 | 16 | 100 | 8.0 | 16.1 | 0.00 | 0.00 | 0.00 | 48 | 1081.3 |
| 20260505062304 | 16 | 100 | 8.0 | 16.1 | 0.00 | 0.00 | 0.00 | 48 | 1081.2 |
| 20260505062217 | 16 | 97 | 6.4 | 16.1 | 0.00 | 0.00 | 0.00 | 48 | 1081.2 |
| 20260505062203 | 16 | 97 | 6.4 | 16.1 | 0.00 | 0.00 | 0.00 | 48 | 1080.9 |
| 20260505062103 | 16 | 98 | 8.0 | 16.1 | 0.00 | 0.00 | 0.00 | 49 | 1081.1 |
| 20260505061903 | 16 | 93 | 8.0 | 16.1 | 0.00 | 0.00 | 0.00 | 48 | 1081.2 |
| 20260505061803 | 16 | 91 | 8.0 | 16.1 | 0.00 | 0.00 | 0.00 | 49 | 1080.8 |
| 20260505061703 | 16 | 89 | 8.0 | 16.1 | 0.00 | 0.00 | 0.00 | 48 | 1081.1 |
| 20260505061617 | 16 | 88 | 8.0 | 16.1 | 0.00 | 0.00 | 0.00 | 49 | 1081.1 |
| 20260505061603 | 16 | 87 | 8.0 | 16.1 | 0.00 | 0.00 | 0.00 | 49 | 1081.3 |
| 20260505061518 | 16 | 86 | 8.0 | 16.1 | 0.00 | 0.00 | 0.00 | 49 | 1081.3 |
| 20260505061503 | 16 | 84 | 8.0 | 16.1 | 0.00 | 0.00 | 0.00 | 49 | 1081.1 |
| 20260505061203 | 15 | 80 | 8.0 | 16.1 | 0.00 | 0.00 | 0.00 | 50 | 1081.1 |
| 20260505061103 | 15 | 77 | 6.4 | 16.1 | 0.00 | 0.00 | 0.00 | 49 | 1081.1 |
| 20260505061003 | 15 | 73 | 6.4 | 16.1 | 0.00 | 0.00 | 0.00 | 50 | 1081.2 |
| 20260505060903 | 15 | 74 | 6.4 | 16.1 | 0.00 | 0.00 | 0.00 | 50 | 1081.4 |
| 20260505060803 | 15 | 74 | 6.4 | 16.1 | 0.00 | 0.00 | 0.00 | 50 | 1081.2 |
| 20260505060703 | 15 | 75 | 6.4 | 16.1 | 0.00 | 0.00 | 0.00 | 50 | 1081.2 |
| 20260505060603 | 15 | 72 | 4.8 | 16.1 | 0.00 | 0.00 | 0.00 | 50 | 1081.2 |
| 20260505060503 | 15 | 73 | 4.8 | 16.1 | 0.00 | 0.00 | 0.00 | 50 | 1081.3 |
| 20260505060403 | 15 | 75 | 4.8 | 16.1 | 0.00 | 0.00 | 0.00 | 50 | 1081.4 |
| 20260505060203 | 15 | 77 | 6.4 | 16.1 | 0.00 | 0.00 | 0.00 | 51 | 1080.9 |
| 20260505060103 | 15 | 82 | 8.0 | 16.1 | 0.00 | 0.00 | 0.00 | 51 | 1081.4 |
| 20260505060003 | 15 | 84 | 8.0 | 16.1 | 0.00 | 0.00 | 0.00 | 51 | 1080.9 |
| 20260505055903 | 15 | 88 | 8.0 | 16.1 | 0.00 | 0.00 | 0.00 | 51 | 1081.1 |
| 20260505055803 | 15 | 89 | 8.0 | 16.1 | 0.00 | 0.00 | 0.00 | 50 | 1081.3 |
| 20260505055703 | 15 | 89 | 8.0 | 16.1 | 0.00 | 0.00 | 0.00 | 51 | 1081.1 |
| 20260505055603 | 15 | 91 | 8.0 | 16.1 | 0.00 | 0.00 | 0.00 | 50 | 1081.1 |
| 20260505055503 | 15 | 89 | 8.0 | 16.1 | 0.00 | 0.00 | 0.00 | 50 | 1081.1 |
| 20260505055418 | 15 | 89 | 8.0 | 16.1 | 0.00 | 0.00 | 0.00 | 51 | 1081.4 |
| 20260505055403 | 15 | 90 | 8.0 | 16.1 | 0.00 | 0.00 | 0.00 | 51 | 1081.4 |
| 20260505055304 | 15 | 86 | 8.0 | 14.5 | 0.00 | 0.00 | 0.00 | 51 | 1081.3 |
| 20260505055103 | 15 | 80 | 8.0 | 17.7 | 0.00 | 0.00 | 0.00 | 51 | 1081.4 |
| 20260505055017 | 15 | 78 | 8.0 | 17.7 | 0.00 | 0.00 | 0.00 | 51 | 1081.3 |
| 20260505055003 | 15 | 78 | 8.0 | 17.7 | 0.00 | 0.00 | 0.00 | 51 | 1081.3 |
| 20260505054903 | 15 | 76 | 8.0 | 17.7 | 0.00 | 0.00 | 0.00 | 50 | 1081.3 |
| 20260505054703 | 15 | 73 | 6.4 | 17.7 | 0.00 | 0.00 | 0.00 | 51 | 1081.4 |
| 20260505054603 | 15 | 71 | 6.4 | 17.7 | 0.00 | 0.00 | 0.00 | 51 | 1081.4 |
| 20260505054503 | 15 | 73 | 6.4 | 17.7 | 0.00 | 0.00 | 0.00 | 51 | 1081.2 |
| 20260505054403 | 15 | 69 | 8.0 | 17.7 | 0.00 | 0.00 | 0.00 | 51 | 1081.4 |
| 20260505054303 | 15 | 71 | 6.4 | 17.7 | 0.00 | 0.00 | 0.00 | 51 | 1081.4 |
| 20260505054203 | 15 | 72 | 6.4 | 16.1 | 0.00 | 0.00 | 0.00 | 51 | 1081.3 |
| 20260505054103 | 15 | 70 | 6.4 | 16.1 | 0.00 | 0.00 | 0.00 | 51 | 1081.3 |
| 20260505054003 | 15 | 67 | 6.4 | 16.1 | 0.00 | 0.00 | 0.00 | 51 | 1081.3 |
| 20260505053903 | 14 | 62 | 4.8 | 16.1 | 0.00 | 0.00 | 0.00 | 51 | 1081.2 |
| 20260505053803 | 14 | 62 | 4.8 | 16.1 | 0.00 | 0.00 | 0.00 | 52 | 1081.3 |
| 20260505053703 | 14 | 63 | 6.4 | 16.1 | 0.00 | 0.00 | 0.00 | 52 | 1081.2 |
| 20260505053603 | 14 | 64 | 4.8 | 16.1 | 0.00 | 0.00 | 0.00 | 53 | 1081.3 |
| 20260505053503 | 14 | 64 | 4.8 | 16.1 | 0.00 | 0.00 | 0.00 | 52 | 1081.1 |
| 20260505053403 | 14 | 65 | 4.8 | 14.5 | 0.00 | 0.00 | 0.00 | 52 | 1081.2 |
| 20260505053317 | 14 | 66 | 4.8 | 14.5 | 0.00 | 0.00 | 0.00 | 52 | 1081.1 |
| 20260505053303 | 14 | 65 | 4.8 | 14.5 | 0.00 | 0.00 | 0.00 | 52 | 1081.1 |
| 20260505053217 | 14 | 68 | 4.8 | 14.5 | 0.00 | 0.00 | 0.00 | 52 | 1081.3 |
| 20260505053203 | 14 | 69 | 4.8 | 14.5 | 0.00 | 0.00 | 0.00 | 52 | 1081.3 |
| 20260505052903 | 14 | 80 | 6.4 | 17.7 | 0.00 | 0.00 | 0.00 | 53 | 1081.2 |
| 20260505052803 | 14 | 79 | 8.0 | 17.7 | 0.00 | 0.00 | 0.00 | 52 | 1081.2 |
| 20260505052718 | 14 | 78 | 8.0 | 17.7 | 0.00 | 0.00 | 0.00 | 53 | 1081.3 |
| 20260505052703 | 14 | 78 | 8.0 | 17.7 | 0.00 | 0.00 | 0.00 | 53 | 1081.3 |
| 20260505052617 | 14 | 77 | 8.0 | 17.7 | 0.00 | 0.00 | 0.00 | 54 | 1081.2 |
| 20260505052603 | 14 | 76 | 8.0 | 17.7 | 0.00 | 0.00 | 0.00 | 54 | 1081.2 |
| 20260505052304 | 13 | 79 | 8.0 | 17.7 | 0.00 | 0.00 | 0.00 | 53 | 1081.1 |
| 20260505052203 | 13 | 79 | 8.0 | 17.7 | 0.00 | 0.00 | 0.00 | 53 | 1081.2 |
| 20260505052103 | 13 | 77 | 8.0 | 17.7 | 0.00 | 0.00 | 0.00 | 53 | 1081.1 |
| 20260505052003 | 13 | 77 | 8.0 | 17.7 | 0.00 | 0.00 | 0.00 | 54 | 1081.2 |
| 20260505051903 | 13 | 72 | 6.4 | 16.1 | 0.00 | 0.00 | 0.00 | 54 | 1081.2 |
| 20260505051803 | 13 | 74 | 6.4 | 16.1 | 0.00 | 0.00 | 0.00 | 53 | 1081.1 |
| 20260505051703 | 13 | 78 | 6.4 | 14.5 | 0.00 | 0.00 | 0.00 | 54 | 1080.9 |
| 20260505051603 | 13 | 81 | 4.8 | 14.5 | 0.00 | 0.00 | 0.00 | 54 | 1080.9 |
| 20260505051503 | 13 | 83 | 4.8 | 14.5 | 0.00 | 0.00 | 0.00 | 55 | 1081.1 |
| 20260505051418 | 13 | 80 | 4.8 | 14.5 | 0.00 | 0.00 | 0.00 | 55 | 1081.1 |
| 20260505051403 | 13 | 79 | 4.8 | 14.5 | 0.00 | 0.00 | 0.00 | 55 | 1081.1 |
| 20260505051303 | 13 | 76 | 4.8 | 11.3 | 0.00 | 0.00 | 0.00 | 56 | 1081.1 |
| 20260505051003 | 13 | 82 | 3.2 | 11.3 | 0.00 | 0.00 | 0.00 | 56 | 1081.1 |
| 20260505050903 | 13 | 84 | 3.2 | 11.3 | 0.00 | 0.00 | 0.00 | 56 | 1081.2 |
| 20260505050803 | 13 | 83 | 3.2 | 11.3 | 0.00 | 0.00 | 0.00 | 56 | 1081.1 |
| 20260505050718 | 13 | 83 | 3.2 | 11.3 | 0.00 | 0.00 | 0.00 | 56 | 1081.1 |
| 20260505050703 | 13 | 82 | 3.2 | 11.3 | 0.00 | 0.00 | 0.00 | 56 | 1081.1 |
| 20260505050603 | 13 | 84 | 3.2 | 11.3 | 0.00 | 0.00 | 0.00 | 56 | 1081.2 |
| 20260505050403 | 13 | 89 | 3.2 | 9.7 | 0.00 | 0.00 | 0.00 | 56 | 1081.2 |
| 20260505050303 | 13 | 90 | 3.2 | 6.4 | 0.00 | 0.00 | 0.00 | 57 | 1081.2 |
| 20260505050203 | 13 | 90 | 1.6 | 6.4 | 0.00 | 0.00 | 0.00 | 57 | 1081.3 |
| 20260505050103 | 13 | 87 | 1.6 | 6.4 | 0.00 | 0.00 | 0.00 | 58 | 1081.3 |
| 20260505041703 | 10 | 59 | 0.0 | 3.2 | 0.00 | 0.00 | 0.00 | 66 | 1081.2 |
| 20260505041618 | 10 | 59 | 0.0 | 3.2 | 0.00 | 0.00 | 0.00 | 66 | 1081.2 |
| 20260505041603 | 10 | 59 | 0.0 | 3.2 | 0.00 | 0.00 | 0.00 | 65 | 1081.4 |
| 20260505041517 | 10 | 48 | 0.0 | 3.2 | 0.00 | 0.00 | 0.00 | 65 | 1081.4 |
| 20260505041503 | 10 | 51 | 0.0 | 3.2 | 0.00 | 0.00 | 0.00 | 65 | 1081.2 |
| 20260505041203 | 10 | 55 | 0.0 | 3.2 | 0.00 | 0.00 | 0.00 | 64 | 1080.9 |
| 20260505041103 | 10 | 56 | 0.0 | 3.2 | 0.00 | 0.00 | 0.00 | 65 | 1081.2 |
| 20260505041003 | 10 | 52 | 1.6 | 3.2 | 0.00 | 0.00 | 0.00 | 64 | 1081.2 |
| 20260505040903 | 10 | 50 | 1.6 | 3.2 | 0.00 | 0.00 | 0.00 | 64 | 1081.3 |
| 20260505040803 | 10 | 48 | 1.6 | 3.2 | 0.00 | 0.00 | 0.00 | 64 | 1081.1 |
| 20260505040718 | 10 | 45 | 1.6 | 3.2 | 0.00 | 0.00 | 0.00 | 65 | 1081.1 |
| 20260505040703 | 10 | 44 | 1.6 | 3.2 | 0.00 | 0.00 | 0.00 | 65 | 1081.3 |
| 20260505040603 | 10 | 44 | 1.6 | 3.2 | 0.00 | 0.00 | 0.00 | 64 | 1081.3 |
| 20260505040403 | 10 | 42 | 0.0 | 3.2 | 0.00 | 0.00 | 0.00 | 64 | 1081.1 |
| 20260505040318 | 10 | 42 | 0.0 | 3.2 | 0.00 | 0.00 | 0.00 | 64 | 1081.1 |
| 20260505040303 | 10 | 42 | 0.0 | 3.2 | 0.00 | 0.00 | 0.00 | 64 | 1081.4 |
| 20260505040203 | 10 | 42 | 0.0 | 3.2 | 0.00 | 0.00 | 0.00 | 64 | 1081.4 |
| 20260505040004 | 10 | 47 | 0.0 | 3.2 | 0.00 | 0.00 | 0.00 | 64 | 1080.9 |
| 20260505035903 | 11 | 49 | 0.0 | 3.2 | 0.00 | 0.00 | 0.00 | 64 | 1081.1 |
| 20260505035803 | 11 | 51 | 0.0 | 3.2 | 0.00 | 0.00 | 0.00 | 64 | 1081.4 |
| 20260505035703 | 11 | 57 | 0.0 | 3.2 | 0.00 | 0.00 | 0.00 | 63 | 1081.2 |
| 20260505035603 | 10 | 59 | 0.0 | 3.2 | 0.00 | 0.00 | 0.00 | 64 | 1081.1 |
| 20260505035503 | 10 | 59 | 0.0 | 3.2 | 0.00 | 0.00 | 0.00 | 64 | 1081.3 |
| 20260505035403 | 10 | 54 | 0.0 | 3.2 | 0.00 | 0.00 | 0.00 | 64 | 1081.2 |
| 20260505035304 | 10 | 53 | 0.0 | 3.2 | 0.00 | 0.00 | 0.00 | 64 | 1081.1 |
| 20260505035203 | 10 | 53 | 0.0 | 3.2 | 0.00 | 0.00 | 0.00 | 64 | 1081.2 |
| 20260505035103 | 10 | 46 | 0.0 | 6.4 | 0.00 | 0.00 | 0.00 | 64 | 1081.1 |
| 20260505035003 | 10 | 45 | 1.6 | 9.7 | 0.00 | 0.00 | 0.00 | 64 | 1081.1 |
| 20260505034903 | 10 | 46 | 1.6 | 9.7 | 0.00 | 0.00 | 0.00 | 64 | 1081.3 |
| 20260505034803 | 10 | 44 | 1.6 | 9.7 | 0.00 | 0.00 | 0.00 | 64 | 1081.3 |
| 20260505034703 | 10 | 44 | 1.6 | 9.7 | 0.00 | 0.00 | 0.00 | 64 | 1081.3 |
| 20260505034503 | 10 | 43 | 1.6 | 9.7 | 0.00 | 0.00 | 0.00 | 64 | 1081.4 |
| 20260505034403 | 10 | 42 | 1.6 | 9.7 | 0.00 | 0.00 | 0.00 | 63 | 1081.4 |
| 20260505034303 | 10 | 41 | 1.6 | 9.7 | 0.00 | 0.00 | 0.00 | 64 | 1081.1 |
| 20260505034203 | 10 | 41 | 1.6 | 9.7 | 0.00 | 0.00 | 0.00 | 64 | 1081.2 |
| 20260505034103 | 10 | 40 | 1.6 | 9.7 | 0.00 | 0.00 | 0.00 | 64 | 1081.2 |
| 20260505034003 | 10 | 39 | 1.6 | 4.8 | 0.00 | 0.00 | 0.00 | 64 | 1081.5 |
| 20260505033903 | 10 | 38 | 1.6 | 4.8 | 0.00 | 0.00 | 0.00 | 63 | 1081.2 |
| 20260505033803 | 10 | 42 | 1.6 | 6.4 | 0.00 | 0.00 | 0.00 | 64 | 1081.1 |
| 20260505033718 | 10 | 40 | 1.6 | 6.4 | 0.00 | 0.00 | 0.00 | 64 | 1081.2 |
| 20260505033703 | 10 | 40 | 1.6 | 6.4 | 0.00 | 0.00 | 0.00 | 63 | 1081.2 |
| 20260505033603 | 10 | 43 | 1.6 | 6.4 | 0.00 | 0.00 | 0.00 | 64 | 1081.4 |
| 20260505033403 | 10 | 47 | 1.6 | 6.4 | 0.00 | 0.00 | 0.00 | 64 | 1081.2 |
| 20260505033303 | 10 | 49 | 1.6 | 6.4 | 0.00 | 0.00 | 0.00 | 64 | 1081.4 |
| 20260505033203 | 10 | 50 | 3.2 | 6.4 | 0.00 | 0.00 | 0.00 | 64 | 1081.3 |
| 20260505033103 | 10 | 51 | 3.2 | 6.4 | 0.00 | 0.00 | 0.00 | 64 | 1081.5 |
| 20260505033003 | 10 | 51 | 3.2 | 6.4 | 0.00 | 0.00 | 0.00 | 64 | 1081.5 |
| 20260505032918 | 10 | 51 | 3.2 | 6.4 | 0.00 | 0.00 | 0.00 | 65 | 1081.3 |
| 20260505032903 | 10 | 52 | 3.2 | 6.4 | 0.00 | 0.00 | 0.00 | 65 | 1081.3 |
| 20260505032803 | 10 | 52 | 3.2 | 6.4 | 0.00 | 0.00 | 0.00 | 65 | 1081.5 |
| 20260505032603 | 10 | 53 | 1.6 | 6.4 | 0.00 | 0.00 | 0.00 | 65 | 1081.5 |
| 20260505032503 | 10 | 52 | 1.6 | 6.4 | 0.00 | 0.00 | 0.00 | 65 | 1081.5 |
| 20260505032403 | 10 | 54 | 1.6 | 6.4 | 0.00 | 0.00 | 0.00 | 65 | 1081.5 |
| 20260505032304 | 10 | 55 | 1.6 | 6.4 | 0.00 | 0.00 | 0.00 | 65 | 1081.3 |
| 20260505032218 | 10 | 55 | 1.6 | 4.8 | 0.00 | 0.00 | 0.00 | 64 | 1081.6 |
| 20260505032203 | 10 | 55 | 0.0 | 4.8 | 0.00 | 0.00 | 0.00 | 64 | 1081.6 |
| 20260505032103 | 10 | 56 | 0.0 | 4.8 | 0.00 | 0.00 | 0.00 | 64 | 1081.5 |
| 20260505031903 | 10 | 41 | 0.0 | 4.8 | 0.00 | 0.00 | 0.00 | 65 | 1081.5 |
| 20260505031803 | 10 | 312 | 0.0 | 1.6 | 0.00 | 0.00 | 0.00 | 64 | 1081.5 |
| 20260505031703 | 10 | 311 | 0.0 | 1.6 | 0.00 | 0.00 | 0.00 | 64 | 1081.4 |
| 20260505031603 | 10 | 311 | 0.0 | 1.6 | 0.00 | 0.00 | 0.00 | 64 | 1081.7 |
| 20260505031403 | 10 | 327 | 0.0 | 1.6 | 0.00 | 0.00 | 0.00 | 64 | 1081.8 |
| 20260505031303 | 10 | 353 | 0.0 | 3.2 | 0.00 | 0.00 | 0.00 | 64 | 1081.7 |
| 20260505031203 | 10 | 356 | 0.0 | 3.2 | 0.00 | 0.00 | 0.00 | 64 | 1081.5 |
| 20260505031103 | 10 | 18 | 0.0 | 3.2 | 0.00 | 0.00 | 0.00 | 65 | 1081.7 |
| 20260505031003 | 10 | 31 | 0.0 | 3.2 | 0.00 | 0.00 | 0.00 | 65 | 1081.5 |
| 20260505030903 | 10 | 44 | 0.0 | 3.2 | 0.00 | 0.00 | 0.00 | 65 | 1081.6 |
| 20260505030803 | 10 | 41 | 1.6 | 4.8 | 0.00 | 0.00 | 0.00 | 66 | 1081.4 |
| 20260505030717 | 10 | 46 | 1.6 | 4.8 | 0.00 | 0.00 | 0.00 | 67 | 1081.8 |
| 20260505030703 | 10 | 47 | 1.6 | 4.8 | 0.00 | 0.00 | 0.00 | 67 | 1081.8 |
| 20260505030603 | 10 | 47 | 1.6 | 4.8 | 0.00 | 0.00 | 0.00 | 65 | 1081.7 |
| 20260505030403 | 10 | 47 | 1.6 | 4.8 | 0.00 | 0.00 | 0.00 | 65 | 1081.6 |
| 20260505030303 | 10 | 48 | 1.6 | 4.8 | 0.00 | 0.00 | 0.00 | 65 | 1081.9 |
| 20260505030203 | 10 | 48 | 1.6 | 4.8 | 0.00 | 0.00 | 0.00 | 65 | 1081.8 |
| 20260505030003 | 10 | 43 | 1.6 | 4.8 | 0.00 | 0.00 | 0.00 | 65 | 1081.7 |
| 20260505025903 | 10 | 40 | 1.6 | 4.8 | 0.00 | 0.00 | 0.00 | 65 | 1081.6 |
| 20260505025803 | 10 | 45 | 1.6 | 4.8 | 0.00 | 0.00 | 0.00 | 65 | 1081.6 |
| 20260505025603 | 10 | 48 | 0.0 | 4.8 | 0.00 | 0.00 | 0.00 | 66 | 1081.7 |
| 20260505025503 | 10 | 48 | 0.0 | 3.2 | 0.00 | 0.00 | 0.00 | 66 | 1081.9 |
| 20260505025403 | 10 | 45 | 0.0 | 1.6 | 0.00 | 0.00 | 0.00 | 66 | 1081.6 |
| 20260505025304 | 10 | 0 | 0.0 | 0.0 | 0.00 | 0.00 | 0.00 | 66 | 1081.7 |
| 20260505025203 | 10 | 0 | 0.0 | 0.0 | 0.00 | 0.00 | 0.00 | 66 | 1081.8 |
| 20260505025104 | 10 | 25 | 0.0 | 3.2 | 0.00 | 0.00 | 0.00 | 66 | 1081.6 |
| 20260505025004 | 10 | 29 | 0.0 | 3.2 | 0.00 | 0.00 | 0.00 | 65 | 1081.9 |
| 20260505024903 | 10 | 24 | 0.0 | 3.2 | 0.00 | 0.00 | 0.00 | 65 | 1081.8 |
| 20260505024803 | 10 | 23 | 0.0 | 3.2 | 0.00 | 0.00 | 0.00 | 66 | 1081.9 |
| 20260505024703 | 10 | 10 | 0.0 | 3.2 | 0.00 | 0.00 | 0.00 | 65 | 1082.0 |
| 20260505024603 | 10 | 13 | 0.0 | 3.2 | 0.00 | 0.00 | 0.00 | 66 | 1081.9 |
| 20260505024503 | 10 | 12 | 0.0 | 3.2 | 0.00 | 0.00 | 0.00 | 65 | 1081.9 |
| 20260505024417 | 10 | 12 | 0.0 | 3.2 | 0.00 | 0.00 | 0.00 | 65 | 1082.0 |
| 20260505024403 | 10 | 13 | 0.0 | 3.2 | 0.00 | 0.00 | 0.00 | 65 | 1082.0 |
| 20260505024318 | 10 | 17 | 0.0 | 3.2 | 0.00 | 0.00 | 0.00 | 67 | 1082.0 |
| 20260505024303 | 10 | 18 | 1.6 | 3.2 | 0.00 | 0.00 | 0.00 | 67 | 1082.0 |
| 20260505024003 | 10 | 27 | 1.6 | 3.2 | 0.00 | 0.00 | 0.00 | 64 | 1081.9 |
| 20260505023903 | 10 | 30 | 1.6 | 3.2 | 0.00 | 0.00 | 0.00 | 65 | 1081.8 |
| 20260505023803 | 10 | 35 | 1.6 | 3.2 | 0.00 | 0.00 | 0.00 | 65 | 1082.0 |
| 20260505023703 | 10 | 46 | 1.6 | 4.8 | 0.00 | 0.00 | 0.00 | 65 | 1082.1 |
| 20260505023603 | 10 | 49 | 1.6 | 4.8 | 0.00 | 0.00 | 0.00 | 63 | 1082.2 |
| 20260505023503 | 10 | 53 | 1.6 | 4.8 | 0.00 | 0.00 | 0.00 | 63 | 1082.1 |
| 20260505023403 | 10 | 54 | 1.6 | 4.8 | 0.00 | 0.00 | 0.00 | 63 | 1081.9 |
| 20260505023303 | 10 | 55 | 0.0 | 4.8 | 0.00 | 0.00 | 0.00 | 63 | 1082.2 |
| 20260505023203 | 10 | 54 | 0.0 | 4.8 | 0.00 | 0.00 | 0.00 | 63 | 1081.9 |
| 20260505023103 | 10 | 54 | 0.0 | 4.8 | 0.00 | 0.00 | 0.00 | 63 | 1082.0 |
| 20260505023003 | 10 | 52 | 0.0 | 4.8 | 0.00 | 0.00 | 0.00 | 62 | 1082.0 |
| 20260505022918 | 10 | 52 | 0.0 | 4.8 | 0.00 | 0.00 | 0.00 | 62 | 1082.1 |
| 20260505022903 | 10 | 53 | 0.0 | 4.8 | 0.00 | 0.00 | 0.00 | 62 | 1082.1 |
| 20260505022803 | 10 | 57 | 0.0 | 4.8 | 0.00 | 0.00 | 0.00 | 63 | 1082.1 |
| 20260505022603 | 10 | 58 | 0.0 | 1.6 | 0.00 | 0.00 | 0.00 | 62 | 1081.9 |
| 20260505022503 | 10 | 58 | 0.0 | 1.6 | 0.00 | 0.00 | 0.00 | 62 | 1082.2 |
| 20260505022403 | 10 | 58 | 0.0 | 1.6 | 0.00 | 0.00 | 0.00 | 62 | 1082.0 |
| 20260505022304 | 10 | 58 | 0.0 | 1.6 | 0.00 | 0.00 | 0.00 | 62 | 1082.4 |
| 20260505022203 | 10 | 58 | 0.0 | 1.6 | 0.00 | 0.00 | 0.00 | 62 | 1082.2 |
| 20260505022003 | 11 | 58 | 0.0 | 1.6 | 0.00 | 0.00 | 0.00 | 61 | 1082.3 |
| 20260505021903 | 11 | 58 | 0.0 | 1.6 | 0.00 | 0.00 | 0.00 | 61 | 1082.4 |
| 20260505021803 | 11 | 58 | 0.0 | 1.6 | 0.00 | 0.00 | 0.00 | 61 | 1082.3 |
| 20260505021703 | 11 | 47 | 0.0 | 1.6 | 0.00 | 0.00 | 0.00 | 60 | 1082.2 |
| 20260505021603 | 11 | 50 | 0.0 | 1.6 | 0.00 | 0.00 | 0.00 | 60 | 1082.3 |
| 20260505021503 | 11 | 50 | 0.0 | 1.6 | 0.00 | 0.00 | 0.00 | 60 | 1082.1 |
| 20260505021403 | 11 | 50 | 0.0 | 1.6 | 0.00 | 0.00 | 0.00 | 61 | 1082.2 |
| 20260505021303 | 11 | 50 | 0.0 | 1.6 | 0.00 | 0.00 | 0.00 | 62 | 1082.1 |
| 20260505021203 | 11 | 50 | 0.0 | 1.6 | 0.00 | 0.00 | 0.00 | 60 | 1082.3 |
| 20260505021103 | 11 | 50 | 0.0 | 1.6 | 0.00 | 0.00 | 0.00 | 60 | 1082.2 |
| 20260505021003 | 11 | 50 | 0.0 | 1.6 | 0.00 | 0.00 | 0.00 | 60 | 1082.2 |
| 20260505020903 | 11 | 50 | 0.0 | 1.6 | 0.00 | 0.00 | 0.00 | 60 | 1082.1 |
| 20260505020603 | 11 | 51 | 0.0 | 1.6 | 0.00 | 0.00 | 0.00 | 60 | 1082.2 |
| 20260505020503 | 11 | 0 | 0.0 | 0.0 | 0.00 | 0.00 | 0.00 | 60 | 1082.3 |
| 20260505020403 | 11 | 0 | 0.0 | 0.0 | 0.00 | 0.00 | 0.00 | 60 | 1082.4 |
| 20260505020303 | 11 | 0 | 0.0 | 0.0 | 0.00 | 0.00 | 0.00 | 60 | 1082.1 |
| 20260505020203 | 11 | 0 | 0.0 | 0.0 | 0.00 | 0.00 | 0.00 | 60 | 1082.4 |
| 20260505020103 | 11 | 0 | 0.0 | 0.0 | 0.00 | 0.00 | 0.00 | 60 | 1082.5 |
| 20260505020003 | 11 | 0 | 0.0 | 0.0 | 0.00 | 0.00 | 0.00 | 60 | 1082.3 |
| 20260505015903 | 11 | 278 | 0.0 | 1.6 | 0.00 | 0.00 | 0.00 | 60 | 1082.4 |
| 20260505015803 | 12 | 291 | 0.0 | 1.6 | 0.00 | 0.00 | 0.00 | 60 | 1082.4 |
| 20260505015703 | 12 | 310 | 0.0 | 3.2 | 0.00 | 0.00 | 0.00 | 59 | 1082.4 |
| 20260505015617 | 12 | 312 | 0.0 | 3.2 | 0.00 | 0.00 | 0.00 | 58 | 1082.3 |
| 20260505015603 | 12 | 314 | 0.0 | 3.2 | 0.00 | 0.00 | 0.00 | 58 | 1082.3 |
| 20260505015503 | 12 | 325 | 0.0 | 3.2 | 0.00 | 0.00 | 0.00 | 58 | 1082.5 |
| 20260505015416 | 12 | 329 | 1.6 | 3.2 | 0.00 | 0.00 | 0.00 | 58 | 1082.5 |
| 20260505015304 | 12 | 333 | 1.6 | 3.2 | 0.00 | 0.00 | 0.00 | 58 | 1082.5 |
| 20260505015116 | 12 | 332 | 1.6 | 3.2 | 0.00 | 0.00 | 0.00 | 59 | 1082.6 |
| 20260505015103 | 12 | 332 | 1.6 | 3.2 | 0.00 | 0.00 | 0.00 | 60 | 1082.6 |
| 20260505015003 | 12 | 332 | 1.6 | 3.2 | 0.00 | 0.00 | 0.00 | 58 | 1082.5 |
| 20260505014803 | 12 | 339 | 1.6 | 3.2 | 0.00 | 0.00 | 0.00 | 59 | 1082.6 |
| 20260505014703 | 12 | 338 | 1.6 | 3.2 | 0.00 | 0.00 | 0.00 | 58 | 1082.3 |
| 20260505014603 | 12 | 339 | 1.6 | 3.2 | 0.00 | 0.00 | 0.00 | 57 | 1082.8 |
| 20260505014503 | 12 | 333 | 1.6 | 3.2 | 0.00 | 0.00 | 0.00 | 57 | 1082.4 |
| 20260505014417 | 12 | 324 | 0.0 | 3.2 | 0.00 | 0.00 | 0.00 | 57 | 1082.4 |
| 20260505014403 | 12 | 317 | 0.0 | 3.2 | 0.00 | 0.00 | 0.00 | 57 | 1082.6 |
| 20260505014303 | 12 | 303 | 1.6 | 3.2 | 0.00 | 0.00 | 0.00 | 57 | 1082.6 |
| 20260505014218 | 12 | 294 | 1.6 | 3.2 | 0.00 | 0.00 | 0.00 | 57 | 1082.6 |
| 20260505014103 | 12 | 274 | 1.6 | 3.2 | 0.00 | 0.00 | 0.00 | 57 | 1082.5 |
| 20260505013903 | 12 | 271 | 1.6 | 3.2 | 0.00 | 0.00 | 0.00 | 56 | 1082.5 |
| 20260505013803 | 12 | 270 | 1.6 | 3.2 | 0.00 | 0.00 | 0.00 | 56 | 1082.7 |
| 20260505013703 | 12 | 268 | 0.0 | 3.2 | 0.00 | 0.00 | 0.00 | 56 | 1082.7 |
| 20260505013603 | 12 | 267 | 1.6 | 3.2 | 0.00 | 0.00 | 0.00 | 56 | 1082.5 |
| 20260505013503 | 12 | 262 | 1.6 | 3.2 | 0.00 | 0.00 | 0.00 | 56 | 1082.6 |
| 20260505013403 | 12 | 262 | 1.6 | 3.2 | 0.00 | 0.00 | 0.00 | 57 | 1082.4 |
| 20260505013303 | 12 | 253 | 0.0 | 3.2 | 0.00 | 0.00 | 0.00 | 56 | 1082.7 |
| 20260505013218 | 12 | 162 | 0.0 | 3.2 | 0.00 | 0.00 | 0.00 | 56 | 1082.7 |
| 20260505013203 | 13 | 102 | 0.0 | 3.2 | 0.00 | 0.00 | 0.00 | 56 | 1082.3 |
| 20260505013103 | 13 | 85 | 0.0 | 4.8 | 0.00 | 0.00 | 0.00 | 56 | 1082.5 |
| 20260505012903 | 12 | 70 | 1.6 | 4.8 | 0.00 | 0.00 | 0.00 | 56 | 1082.3 |
| 20260505012803 | 12 | 70 | 1.6 | 4.8 | 0.00 | 0.00 | 0.00 | 56 | 1082.3 |
| 20260505012703 | 12 | 69 | 1.6 | 4.8 | 0.00 | 0.00 | 0.00 | 55 | 1082.4 |
| 20260505012617 | 12 | 68 | 1.6 | 4.8 | 0.00 | 0.00 | 0.00 | 55 | 1082.4 |
| 20260505012603 | 12 | 66 | 1.6 | 4.8 | 0.00 | 0.00 | 0.00 | 55 | 1082.3 |
| 20260505012518 | 12 | 65 | 1.6 | 4.8 | 0.00 | 0.00 | 0.00 | 54 | 1082.3 |
| 20260505012503 | 12 | 64 | 1.6 | 4.8 | 0.00 | 0.00 | 0.00 | 54 | 1082.3 |
| 20260505012203 | 13 | 61 | 1.6 | 6.4 | 0.00 | 0.00 | 0.00 | 54 | 1082.3 |
| 20260505012103 | 13 | 62 | 1.6 | 6.4 | 0.00 | 0.00 | 0.00 | 55 | 1082.3 |
| 20260505012003 | 13 | 63 | 1.6 | 6.4 | 0.00 | 0.00 | 0.00 | 54 | 1082.5 |
| 20260505011903 | 13 | 62 | 1.6 | 6.4 | 0.00 | 0.00 | 0.00 | 54 | 1082.2 |
| 20260505011803 | 13 | 61 | 1.6 | 6.4 | 0.00 | 0.00 | 0.00 | 54 | 1082.4 |
| 20260505011703 | 13 | 59 | 1.6 | 6.4 | 0.00 | 0.00 | 0.00 | 54 | 1082.5 |
| 20260505011603 | 13 | 59 | 1.6 | 6.4 | 0.00 | 0.00 | 0.00 | 54 | 1082.4 |
| 20260505011503 | 13 | 59 | 1.6 | 6.4 | 0.00 | 0.00 | 0.00 | 54 | 1082.6 |
| 20260505011303 | 13 | 56 | 1.6 | 4.8 | 0.00 | 0.00 | 0.00 | 54 | 1082.6 |
| 20260505011203 | 13 | 51 | 1.6 | 4.8 | 0.00 | 0.00 | 0.00 | 54 | 1082.4 |
| 20260505011103 | 13 | 43 | 1.6 | 4.8 | 0.00 | 0.00 | 0.00 | 54 | 1082.3 |
| 20260505011003 | 13 | 43 | 1.6 | 4.8 | 0.00 | 0.00 | 0.00 | 54 | 1082.4 |
| 20260505010903 | 13 | 42 | 1.6 | 4.8 | 0.00 | 0.00 | 0.00 | 54 | 1082.3 |
| 20260505010803 | 13 | 42 | 0.0 | 3.2 | 0.00 | 0.00 | 0.00 | 54 | 1082.3 |
| 20260505010703 | 13 | 42 | 0.0 | 3.2 | 0.00 | 0.00 | 0.00 | 54 | 1082.3 |
| 20260505010603 | 13 | 39 | 0.0 | 3.2 | 0.00 | 0.00 | 0.00 | 53 | 1082.3 |
| 20260505010518 | 13 | 37 | 0.0 | 3.2 | 0.00 | 0.00 | 0.00 | 53 | 1082.4 |
| 20260505010403 | 13 | 34 | 0.0 | 3.2 | 0.00 | 0.00 | 0.00 | 53 | 1082.4 |
| 20260505010203 | 13 | 19 | 1.6 | 3.2 | 0.00 | 0.00 | 0.00 | 53 | 1082.5 |
| 20260505010103 | 13 | 20 | 0.0 | 3.2 | 0.00 | 0.00 | 0.00 | 53 | 1082.5 |
| 20260505010003 | 13 | 10 | 0.0 | 3.2 | 0.00 | 0.00 | 0.00 | 53 | 1082.4 |
| 20260505005903 | 13 | 10 | 0.0 | 3.2 | 0.00 | 0.00 | 0.00 | 52 | 1082.5 |
| 20260505005803 | 13 | 11 | 0.0 | 3.2 | 0.00 | 0.00 | 0.00 | 53 | 1082.3 |
| 20260505005703 | 13 | 23 | 1.6 | 3.2 | 0.00 | 0.00 | 0.00 | 53 | 1082.5 |
| 20260505005503 | 13 | 22 | 1.6 | 3.2 | 0.00 | 0.00 | 0.00 | 53 | 1082.7 |
| 20260505005403 | 13 | 13 | 0.0 | 3.2 | 0.00 | 0.00 | 0.00 | 53 | 1082.4 |
| 20260505005304 | 13 | 6 | 1.6 | 3.2 | 0.00 | 0.00 | 0.00 | 53 | 1082.6 |
| 20260505005217 | 13 | 15 | 0.0 | 3.2 | 0.00 | 0.00 | 0.00 | 52 | 1082.5 |
| 20260505005203 | 13 | 16 | 0.0 | 3.2 | 0.00 | 0.00 | 0.00 | 52 | 1082.5 |
| 20260505005118 | 13 | 21 | 1.6 | 3.2 | 0.00 | 0.00 | 0.00 | 52 | 1082.5 |
| 20260505005103 | 13 | 23 | 1.6 | 3.2 | 0.00 | 0.00 | 0.00 | 52 | 1082.5 |
| 20260505004803 | 13 | 33 | 1.6 | 6.4 | 0.00 | 0.00 | 0.00 | 52 | 1082.4 |
| 20260505004703 | 13 | 33 | 1.6 | 6.4 | 0.00 | 0.00 | 0.00 | 52 | 1082.5 |
| 20260505004603 | 13 | 35 | 1.6 | 6.4 | 0.00 | 0.00 | 0.00 | 52 | 1082.6 |
| 20260505004503 | 13 | 35 | 1.6 | 6.4 | 0.00 | 0.00 | 0.00 | 52 | 1082.5 |
| 20260505004203 | 13 | 43 | 1.6 | 6.4 | 0.00 | 0.00 | 0.00 | 52 | 1082.7 |
| 20260505004103 | 13 | 41 | 1.6 | 6.4 | 0.00 | 0.00 | 0.00 | 52 | 1082.5 |
| 20260505004003 | 14 | 38 | 1.6 | 6.4 | 0.00 | 0.00 | 0.00 | 52 | 1082.5 |
| 20260505003903 | 14 | 38 | 1.6 | 6.4 | 0.00 | 0.00 | 0.00 | 52 | 1082.6 |
| 20260505003803 | 14 | 39 | 1.6 | 6.4 | 0.00 | 0.00 | 0.00 | 52 | 1082.8 |
| 20260505003703 | 14 | 32 | 0.0 | 4.8 | 0.00 | 0.00 | 0.00 | 52 | 1082.5 |
| 20260505003603 | 14 | 28 | 0.0 | 3.2 | 0.00 | 0.00 | 0.00 | 52 | 1082.7 |
| 20260505003503 | 14 | 28 | 0.0 | 3.2 | 0.00 | 0.00 | 0.00 | 52 | 1082.8 |
| 20260505003403 | 14 | 28 | 0.0 | 3.2 | 0.00 | 0.00 | 0.00 | 51 | 1082.5 |
| 20260505003317 | 14 | 34 | 0.0 | 3.2 | 0.00 | 0.00 | 0.00 | 52 | 1082.5 |
| 20260505003303 | 14 | 37 | 0.0 | 3.2 | 0.00 | 0.00 | 0.00 | 52 | 1082.5 |
| 20260505003003 | 14 | 54 | 0.0 | 3.2 | 0.00 | 0.00 | 0.00 | 52 | 1082.6 |
| 20260505002903 | 14 | 59 | 0.0 | 4.8 | 0.00 | 0.00 | 0.00 | 52 | 1082.6 |
| 20260505002803 | 14 | 58 | 0.0 | 4.8 | 0.00 | 0.00 | 0.00 | 51 | 1082.5 |
| 20260505002718 | 14 | 55 | 1.6 | 6.4 | 0.00 | 0.00 | 0.00 | 51 | 1082.7 |
| 20260505002703 | 14 | 54 | 1.6 | 9.7 | 0.00 | 0.00 | 0.00 | 51 | 1082.7 |
| 20260505002603 | 14 | 62 | 1.6 | 11.3 | 0.00 | 0.00 | 0.00 | 51 | 1083.0 |
| 20260505002403 | 14 | 63 | 1.6 | 11.3 | 0.00 | 0.00 | 0.00 | 52 | 1082.7 |
| 20260505002304 | 14 | 61 | 3.2 | 11.3 | 0.00 | 0.00 | 0.00 | 51 | 1082.7 |
| 20260505002203 | 14 | 60 | 3.2 | 11.3 | 0.00 | 0.00 | 0.00 | 51 | 1082.8 |
| 20260505002003 | 14 | 62 | 3.2 | 11.3 | 0.00 | 0.00 | 0.00 | 51 | 1082.8 |
| 20260505001903 | 14 | 64 | 3.2 | 11.3 | 0.00 | 0.00 | 0.00 | 51 | 1082.8 |
| 20260505001803 | 14 | 65 | 3.2 | 11.3 | 0.00 | 0.00 | 0.00 | 51 | 1083.1 |
| 20260505001703 | 14 | 66 | 3.2 | 11.3 | 0.00 | 0.00 | 0.00 | 52 | 1082.8 |
| 20260505001617 | 14 | 63 | 3.2 | 11.3 | 0.00 | 0.00 | 0.00 | 52 | 1083.0 |
| 20260505001603 | 14 | 64 | 3.2 | 11.3 | 0.00 | 0.00 | 0.00 | 52 | 1083.0 |
| 20260505001503 | 14 | 65 | 3.2 | 11.3 | 0.00 | 0.00 | 0.00 | 52 | 1083.0 |
| 20260505001303 | 14 | 69 | 3.2 | 11.3 | 0.00 | 0.00 | 0.00 | 52 | 1083.0 |
| 20260505001203 | 14 | 72 | 3.2 | 11.3 | 0.00 | 0.00 | 0.00 | 52 | 1083.0 |
| 20260505001103 | 14 | 72 | 1.6 | 11.3 | 0.00 | 0.00 | 0.00 | 52 | 1083.2 |
| 20260505001003 | 14 | 72 | 1.6 | 11.3 | 0.00 | 0.00 | 0.00 | 52 | 1083.0 |
| 20260505000903 | 14 | 72 | 1.6 | 9.7 | 0.00 | 0.00 | 0.00 | 52 | 1082.8 |
| 20260505000803 | 14 | 70 | 1.6 | 9.7 | 0.00 | 0.00 | 0.00 | 52 | 1083.1 |
| 20260505000603 | 14 | 68 | 1.6 | 9.7 | 0.00 | 0.00 | 0.00 | 52 | 1083.2 |
| 20260505000503 | 14 | 66 | 1.6 | 6.4 | 0.00 | 0.00 | 0.00 | 52 | 1082.8 |
| 20260505000405 | 14 | 64 | 1.6 | 6.4 | 0.00 | 0.00 | 0.00 | 52 | 1082.7 |
| 20260505000303 | 14 | 65 | 1.6 | 9.7 | 0.00 | 0.00 | 0.00 | 52 | 1083.1 |
| 20260505000204 | 14 | 66 | 3.2 | 9.7 | 0.00 | 0.00 | 0.00 | 52 | 1083.1 |
| 20260505000103 | 14 | 66 | 3.2 | 9.7 | 0.00 | 0.00 | 0.00 | 52 | 1083.1 |
| 20260505000018 | 14 | 67 | 3.2 | 9.7 | 0.00 | 0.00 | 0.00 | 52 | 1082.8 |
| 20260505000003 | 14 | 66 | 3.2 | 9.7 | 0.00 | 0.00 | 0.00 | 52 | 1082.8 |
| 20260504235903 | 14 | 65 | 3.2 | 9.7 | 0.00 | 0.00 | 0.00 | 52 | 1083.1 |
| 20260504235703 | 14 | 67 | 3.2 | 9.7 | 0.00 | 0.00 | 0.00 | 52 | 1083.1 |
| 20260504235603 | 14 | 65 | 3.2 | 9.7 | 0.00 | 0.00 | 0.00 | 52 | 1083.0 |
| 20260504235503 | 14 | 67 | 3.2 | 9.7 | 0.00 | 0.00 | 0.00 | 52 | 1083.1 |
| 20260504235403 | 14 | 66 | 3.2 | 9.7 | 0.00 | 0.00 | 0.00 | 52 | 1083.1 |
| 20260504235304 | 14 | 66 | 1.6 | 9.7 | 0.00 | 0.00 | 0.00 | 52 | 1083.1 |
| 20260504235203 | 14 | 63 | 1.6 | 6.4 | 0.00 | 0.00 | 0.00 | 52 | 1083.2 |
| 20260504235103 | 14 | 67 | 1.6 | 6.4 | 0.00 | 0.00 | 0.00 | 52 | 1083.4 |
| 20260504235003 | 14 | 67 | 1.6 | 6.4 | 0.00 | 0.00 | 0.00 | 52 | 1083.3 |
| 20260504234903 | 14 | 63 | 1.6 | 9.7 | 0.00 | 0.00 | 0.00 | 52 | 1083.0 |
| 20260504234803 | 14 | 61 | 1.6 | 9.7 | 0.00 | 0.00 | 0.00 | 52 | 1083.3 |
| 20260504234703 | 14 | 60 | 3.2 | 9.7 | 0.00 | 0.00 | 0.00 | 52 | 1083.3 |
| 20260504234603 | 14 | 63 | 3.2 | 9.7 | 0.00 | 0.00 | 0.00 | 52 | 1083.3 |
| 20260504234503 | 14 | 61 | 3.2 | 9.7 | 0.00 | 0.00 | 0.00 | 52 | 1083.3 |
| 20260504234403 | 14 | 60 | 3.2 | 9.7 | 0.00 | 0.00 | 0.00 | 52 | 1083.4 |
| 20260504234303 | 14 | 61 | 3.2 | 9.7 | 0.00 | 0.00 | 0.00 | 52 | 1083.3 |
| 20260504234203 | 14 | 62 | 3.2 | 9.7 | 0.00 | 0.00 | 0.00 | 52 | 1083.2 |
| 20260504234103 | 14 | 60 | 3.2 | 9.7 | 0.00 | 0.00 | 0.00 | 52 | 1083.4 |
| 20260504234003 | 14 | 59 | 3.2 | 9.7 | 0.00 | 0.00 | 0.00 | 52 | 1083.4 |
| 20260504233903 | 14 | 61 | 3.2 | 9.7 | 0.00 | 0.00 | 0.00 | 52 | 1083.2 |
| 20260504233803 | 14 | 63 | 3.2 | 9.7 | 0.00 | 0.00 | 0.00 | 52 | 1083.2 |
| 20260504233703 | 14 | 63 | 3.2 | 9.7 | 0.00 | 0.00 | 0.00 | 52 | 1083.3 |
| 20260504233603 | 14 | 61 | 3.2 | 9.7 | 0.00 | 0.00 | 0.00 | 52 | 1083.3 |
| 20260504233503 | 14 | 62 | 4.8 | 11.3 | 0.00 | 0.00 | 0.00 | 52 | 1083.4 |
| 20260504233403 | 14 | 64 | 3.2 | 11.3 | 0.00 | 0.00 | 0.00 | 52 | 1083.3 |
| 20260504233303 | 14 | 66 | 4.8 | 11.3 | 0.00 | 0.00 | 0.00 | 52 | 1083.6 |
| 20260504233217 | 14 | 65 | 4.8 | 11.3 | 0.00 | 0.00 | 0.00 | 52 | 1083.2 |
| 20260504233203 | 14 | 64 | 3.2 | 11.3 | 0.00 | 0.00 | 0.00 | 52 | 1083.2 |
| 20260504233103 | 14 | 65 | 3.2 | 11.3 | 0.00 | 0.00 | 0.00 | 52 | 1083.2 |
| 20260504233018 | 14 | 65 | 3.2 | 11.3 | 0.00 | 0.00 | 0.00 | 52 | 1083.3 |
| 20260504232903 | 14 | 67 | 3.2 | 11.3 | 0.00 | 0.00 | 0.00 | 52 | 1083.5 |
| 20260504232703 | 14 | 67 | 3.2 | 11.3 | 0.00 | 0.00 | 0.00 | 52 | 1083.3 |
| 20260504232603 | 14 | 69 | 3.2 | 11.3 | 0.00 | 0.00 | 0.00 | 52 | 1083.3 |
| 20260504232503 | 14 | 69 | 3.2 | 9.7 | 0.00 | 0.00 | 0.00 | 52 | 1083.4 |
| 20260504232403 | 14 | 72 | 3.2 | 9.7 | 0.00 | 0.00 | 0.00 | 52 | 1083.4 |
| 20260504232304 | 14 | 69 | 3.2 | 6.4 | 0.00 | 0.00 | 0.00 | 51 | 1083.4 |
| 20260504232203 | 14 | 70 | 3.2 | 6.4 | 0.00 | 0.00 | 0.00 | 51 | 1083.5 |
| 20260504232103 | 14 | 71 | 1.6 | 6.4 | 0.00 | 0.00 | 0.00 | 51 | 1083.3 |
| 20260504231903 | 14 | 71 | 1.6 | 6.4 | 0.00 | 0.00 | 0.00 | 51 | 1083.3 |
| 20260504231803 | 14 | 70 | 1.6 | 6.4 | 0.00 | 0.00 | 0.00 | 51 | 1083.4 |
| 20260504231718 | 15 | 73 | 1.6 | 4.8 | 0.00 | 0.00 | 0.00 | 51 | 1083.5 |
| 20260504231703 | 15 | 76 | 1.6 | 4.8 | 0.00 | 0.00 | 0.00 | 51 | 1083.5 |
| 20260504231603 | 15 | 72 | 1.6 | 6.4 | 0.00 | 0.00 | 0.00 | 51 | 1083.4 |
| 20260504231403 | 15 | 58 | 1.6 | 11.3 | 0.00 | 0.00 | 0.00 | 51 | 1083.4 |
| 20260504231303 | 15 | 62 | 3.2 | 11.3 | 0.00 | 0.00 | 0.00 | 50 | 1083.4 |
| 20260504231203 | 15 | 62 | 3.2 | 11.3 | 0.00 | 0.00 | 0.00 | 50 | 1083.4 |
| 20260504231103 | 15 | 60 | 3.2 | 11.3 | 0.00 | 0.00 | 0.00 | 51 | 1083.6 |
| 20260504231003 | 15 | 60 | 3.2 | 11.3 | 0.00 | 0.00 | 0.00 | 50 | 1083.7 |
| 20260504230903 | 15 | 61 | 3.2 | 11.3 | 0.00 | 0.00 | 0.00 | 50 | 1083.6 |
| 20260504230803 | 15 | 61 | 4.8 | 11.3 | 0.00 | 0.00 | 0.00 | 51 | 1083.5 |
| 20260504230703 | 15 | 62 | 4.8 | 11.3 | 0.00 | 0.00 | 0.00 | 51 | 1083.4 |
| 20260504230603 | 15 | 63 | 4.8 | 11.3 | 0.00 | 0.00 | 0.00 | 51 | 1083.5 |
| 20260504230503 | 15 | 65 | 4.8 | 11.3 | 0.00 | 0.00 | 0.00 | 50 | 1083.4 |
| 20260504230403 | 15 | 68 | 4.8 | 11.3 | 0.00 | 0.00 | 0.00 | 51 | 1083.4 |
| 20260504230303 | 15 | 68 | 4.8 | 11.3 | 0.00 | 0.00 | 0.00 | 51 | 1083.6 |
| 20260504230203 | 15 | 69 | 4.8 | 11.3 | 0.00 | 0.00 | 0.00 | 51 | 1083.6 |
| 20260504230117 | 15 | 72 | 4.8 | 11.3 | 0.00 | 0.00 | 0.00 | 51 | 1083.6 |
| 20260504225804 | 15 | 81 | 6.4 | 11.3 | 0.00 | 0.00 | 0.00 | 51 | 1083.5 |
| 20260504225703 | 15 | 83 | 6.4 | 11.3 | 0.00 | 0.00 | 0.00 | 50 | 1083.6 |
| 20260504225603 | 15 | 88 | 6.4 | 11.3 | 0.00 | 0.00 | 0.00 | 50 | 1083.7 |
| 20260504225304 | 15 | 90 | 6.4 | 11.3 | 0.00 | 0.00 | 0.00 | 50 | 1083.7 |
| 20260504225203 | 15 | 90 | 6.4 | 11.3 | 0.00 | 0.00 | 0.00 | 50 | 1083.7 |
| 20260504225103 | 15 | 89 | 6.4 | 11.3 | 0.00 | 0.00 | 0.00 | 50 | 1083.9 |
| 20260504225003 | 15 | 87 | 6.4 | 11.3 | 0.00 | 0.00 | 0.00 | 50 | 1083.7 |
| 20260504224903 | 15 | 86 | 6.4 | 11.3 | 0.00 | 0.00 | 0.00 | 50 | 1083.7 |
| 20260504224803 | 15 | 83 | 6.4 | 11.3 | 0.00 | 0.00 | 0.00 | 50 | 1083.6 |
| 20260504224703 | 15 | 81 | 4.8 | 11.3 | 0.00 | 0.00 | 0.00 | 50 | 1083.8 |
| 20260504224603 | 15 | 79 | 6.4 | 12.9 | 0.00 | 0.00 | 0.00 | 50 | 1083.8 |
| 20260504224503 | 15 | 80 | 6.4 | 12.9 | 0.00 | 0.00 | 0.00 | 50 | 1083.8 |
| 20260504224403 | 15 | 80 | 6.4 | 12.9 | 0.00 | 0.00 | 0.00 | 50 | 1083.8 |
| 20260504224303 | 15 | 78 | 6.4 | 12.9 | 0.00 | 0.00 | 0.00 | 50 | 1083.9 |
| 20260504224103 | 15 | 81 | 6.4 | 12.9 | 0.00 | 0.00 | 0.00 | 50 | 1083.9 |
| 20260504224003 | 15 | 80 | 6.4 | 12.9 | 0.00 | 0.00 | 0.00 | 50 | 1083.8 |
| 20260504223903 | 15 | 80 | 6.4 | 12.9 | 0.00 | 0.00 | 0.00 | 50 | 1083.7 |
| 20260504223803 | 15 | 80 | 6.4 | 12.9 | 0.00 | 0.00 | 0.00 | 50 | 1083.8 |
| 20260504223703 | 15 | 82 | 6.4 | 12.9 | 0.00 | 0.00 | 0.00 | 50 | 1083.8 |
| 20260504223603 | 15 | 79 | 6.4 | 11.3 | 0.00 | 0.00 | 0.00 | 50 | 1083.6 |
| 20260504223503 | 15 | 79 | 4.8 | 11.3 | 0.00 | 0.00 | 0.00 | 50 | 1083.8 |
| 20260504223403 | 15 | 78 | 4.8 | 11.3 | 0.00 | 0.00 | 0.00 | 50 | 1084.0 |
| 20260504223303 | 15 | 77 | 4.8 | 11.3 | 0.00 | 0.00 | 0.00 | 50 | 1083.5 |
| 20260504223203 | 15 | 75 | 4.8 | 11.3 | 0.00 | 0.00 | 0.00 | 50 | 1083.7 |
| 20260504223103 | 15 | 72 | 4.8 | 11.3 | 0.00 | 0.00 | 0.00 | 50 | 1083.7 |
| 20260504223004 | 15 | 73 | 4.8 | 12.9 | 0.00 | 0.00 | 0.00 | 50 | 1083.9 |
| 20260504222903 | 15 | 72 | 4.8 | 12.9 | 0.00 | 0.00 | 0.00 | 50 | 1083.8 |
| 20260504222803 | 15 | 74 | 6.4 | 12.9 | 0.00 | 0.00 | 0.00 | 50 | 1083.9 |
| 20260504222703 | 15 | 72 | 6.4 | 12.9 | 0.00 | 0.00 | 0.00 | 50 | 1083.8 |
| 20260504222603 | 15 | 73 | 6.4 | 12.9 | 0.00 | 0.00 | 0.00 | 50 | 1083.8 |
| 20260504222503 | 15 | 71 | 6.4 | 12.9 | 0.00 | 0.00 | 0.00 | 51 | 1083.8 |
| 20260504222403 | 15 | 72 | 6.4 | 12.9 | 0.00 | 0.00 | 0.00 | 50 | 1083.7 |
| 20260504222203 | 15 | 74 | 6.4 | 12.9 | 0.00 | 0.00 | 0.00 | 50 | 1083.6 |
| 20260504222103 | 15 | 76 | 6.4 | 12.9 | 0.00 | 0.00 | 0.00 | 50 | 1084.0 |
| 20260504222003 | 15 | 76 | 6.4 | 14.5 | 0.00 | 0.00 | 0.00 | 50 | 1084.1 |
| 20260504221903 | 15 | 74 | 6.4 | 14.5 | 0.00 | 0.00 | 0.00 | 50 | 1083.9 |
| 20260504221803 | 15 | 74 | 6.4 | 14.5 | 0.00 | 0.00 | 0.00 | 50 | 1084.0 |
| 20260504221703 | 15 | 74 | 6.4 | 14.5 | 0.00 | 0.00 | 0.00 | 50 | 1084.0 |
| 20260504221603 | 15 | 75 | 6.4 | 14.5 | 0.00 | 0.00 | 0.00 | 50 | 1083.9 |
| 20260504221503 | 15 | 73 | 6.4 | 14.5 | 0.00 | 0.00 | 0.00 | 50 | 1083.9 |
| 20260504221403 | 15 | 74 | 6.4 | 14.5 | 0.00 | 0.00 | 0.00 | 50 | 1083.8 |
| 20260504221303 | 15 | 71 | 6.4 | 14.5 | 0.00 | 0.00 | 0.00 | 50 | 1083.8 |
| 20260504221203 | 15 | 70 | 4.8 | 14.5 | 0.00 | 0.00 | 0.00 | 50 | 1083.7 |
| 20260504221103 | 15 | 67 | 4.8 | 14.5 | 0.00 | 0.00 | 0.00 | 51 | 1083.5 |
| 20260504221003 | 15 | 68 | 4.8 | 12.9 | 0.00 | 0.00 | 0.00 | 50 | 1084.0 |
| 20260504220903 | 15 | 69 | 4.8 | 12.9 | 0.00 | 0.00 | 0.00 | 51 | 1083.9 |
| 20260504220803 | 15 | 69 | 4.8 | 12.9 | 0.00 | 0.00 | 0.00 | 50 | 1084.0 |
| 20260504220703 | 15 | 67 | 4.8 | 12.9 | 0.00 | 0.00 | 0.00 | 51 | 1083.8 |
| 20260504220603 | 15 | 68 | 3.2 | 11.3 | 0.00 | 0.00 | 0.00 | 50 | 1083.8 |
| 20260504220503 | 15 | 72 | 3.2 | 11.3 | 0.00 | 0.00 | 0.00 | 51 | 1084.0 |
| 20260504220403 | 15 | 69 | 3.2 | 11.3 | 0.00 | 0.00 | 0.00 | 51 | 1084.0 |
| 20260504220303 | 15 | 66 | 3.2 | 11.3 | 0.00 | 0.00 | 0.00 | 51 | 1084.0 |
| 20260504220203 | 15 | 63 | 4.8 | 11.3 | 0.00 | 0.00 | 0.00 | 51 | 1084.2 |
| 20260504220117 | 15 | 64 | 4.8 | 11.3 | 0.00 | 0.00 | 0.00 | 51 | 1084.0 |
| 20260504220004 | 15 | 64 | 3.2 | 11.3 | 0.00 | 0.00 | 0.00 | 51 | 1084.2 |
| 20260504215817 | 15 | 61 | 3.2 | 11.3 | 0.00 | 0.00 | 0.00 | 51 | 1084.0 |
| 20260504215803 | 15 | 60 | 3.2 | 11.3 | 0.00 | 0.00 | 0.00 | 51 | 1084.0 |
| 20260504215717 | 15 | 60 | 3.2 | 11.3 | 0.00 | 0.00 | 0.00 | 51 | 1084.0 |
| 20260504215703 | 15 | 61 | 3.2 | 11.3 | 0.00 | 0.00 | 0.00 | 51 | 1084.0 |
| 20260504215403 | 15 | 57 | 4.8 | 11.3 | 0.00 | 0.00 | 0.00 | 51 | 1084.2 |
| 20260504215304 | 15 | 60 | 4.8 | 11.3 | 0.00 | 0.00 | 0.00 | 51 | 1083.9 |
| 20260504215218 | 15 | 64 | 3.2 | 11.3 | 0.00 | 0.00 | 0.00 | 51 | 1084.3 |
| 20260504215103 | 15 | 63 | 4.8 | 12.9 | 0.00 | 0.00 | 0.00 | 50 | 1084.1 |
| 20260504214903 | 15 | 63 | 4.8 | 12.9 | 0.00 | 0.00 | 0.00 | 51 | 1084.1 |
| 20260504214803 | 15 | 64 | 4.8 | 12.9 | 0.00 | 0.00 | 0.00 | 51 | 1084.2 |
| 20260504214703 | 15 | 63 | 4.8 | 12.9 | 0.00 | 0.00 | 0.00 | 51 | 1084.0 |
| 20260504214603 | 15 | 63 | 6.4 | 12.9 | 0.00 | 0.00 | 0.00 | 51 | 1084.0 |
| 20260504214503 | 15 | 65 | 6.4 | 12.9 | 0.00 | 0.00 | 0.00 | 51 | 1084.2 |
| 20260504214403 | 15 | 66 | 6.4 | 12.9 | 0.00 | 0.00 | 0.00 | 51 | 1084.2 |
| 20260504214303 | 15 | 67 | 6.4 | 12.9 | 0.00 | 0.00 | 0.00 | 51 | 1084.2 |
| 20260504214117 | 15 | 66 | 6.4 | 12.9 | 0.00 | 0.00 | 0.00 | 51 | 1084.1 |
| 20260504214103 | 15 | 67 | 6.4 | 11.3 | 0.00 | 0.00 | 0.00 | 51 | 1084.1 |
| 20260504214003 | 15 | 66 | 6.4 | 11.3 | 0.00 | 0.00 | 0.00 | 52 | 1084.1 |
| 20260504213803 | 15 | 66 | 4.8 | 11.3 | 0.00 | 0.00 | 0.00 | 52 | 1084.2 |
| 20260504213703 | 15 | 66 | 4.8 | 11.3 | 0.00 | 0.00 | 0.00 | 52 | 1084.1 |
| 20260504213503 | 15 | 65 | 4.8 | 11.3 | 0.00 | 0.00 | 0.00 | 52 | 1084.1 |
| 20260504213403 | 15 | 64 | 3.2 | 11.3 | 0.00 | 0.00 | 0.00 | 52 | 1084.3 |
| 20260504213303 | 15 | 64 | 4.8 | 11.3 | 0.00 | 0.00 | 0.00 | 52 | 1084.1 |
| 20260504213203 | 15 | 63 | 3.2 | 11.3 | 0.00 | 0.00 | 0.00 | 52 | 1084.1 |
| 20260504213103 | 15 | 62 | 3.2 | 9.7 | 0.00 | 0.00 | 0.00 | 52 | 1084.1 |
| 20260504213003 | 15 | 63 | 3.2 | 9.7 | 0.00 | 0.00 | 0.00 | 52 | 1084.3 |
| 20260504212903 | 15 | 63 | 3.2 | 9.7 | 0.00 | 0.00 | 0.00 | 52 | 1084.2 |
| 20260504212603 | 15 | 65 | 1.6 | 9.7 | 0.00 | 0.00 | 0.00 | 53 | 1084.3 |
| 20260504212503 | 15 | 64 | 1.6 | 9.7 | 0.00 | 0.00 | 0.00 | 52 | 1084.3 |
| 20260504212403 | 15 | 66 | 1.6 | 11.3 | 0.00 | 0.00 | 0.00 | 53 | 1084.1 |
| 20260504212304 | 15 | 63 | 1.6 | 11.3 | 0.00 | 0.00 | 0.00 | 52 | 1084.3 |
| 20260504212203 | 15 | 59 | 1.6 | 11.3 | 0.00 | 0.00 | 0.00 | 52 | 1084.3 |
| 20260504212103 | 15 | 57 | 1.6 | 11.3 | 0.00 | 0.00 | 0.00 | 52 | 1084.2 |
| 20260504212003 | 15 | 58 | 3.2 | 11.3 | 0.00 | 0.00 | 0.00 | 51 | 1084.2 |
| 20260504211903 | 15 | 57 | 3.2 | 11.3 | 0.00 | 0.00 | 0.00 | 51 | 1084.4 |
| 20260504211803 | 15 | 57 | 3.2 | 11.3 | 0.00 | 0.00 | 0.00 | 51 | 1084.3 |
| 20260504211703 | 15 | 58 | 3.2 | 11.3 | 0.00 | 0.00 | 0.00 | 51 | 1084.4 |
| 20260504211603 | 15 | 58 | 4.8 | 11.3 | 0.00 | 0.00 | 0.00 | 51 | 1084.3 |
| 20260504211503 | 15 | 59 | 4.8 | 11.3 | 0.00 | 0.00 | 0.00 | 51 | 1084.5 |
| 20260504211303 | 16 | 57 | 4.8 | 14.5 | 0.00 | 0.00 | 0.00 | 51 | 1084.2 |
| 20260504211203 | 16 | 61 | 4.8 | 14.5 | 0.00 | 0.00 | 0.00 | 51 | 1084.3 |
| 20260504211103 | 16 | 64 | 4.8 | 14.5 | 0.00 | 0.00 | 0.00 | 51 | 1084.4 |
| 20260504211003 | 16 | 64 | 4.8 | 14.5 | 0.00 | 0.00 | 0.00 | 52 | 1084.5 |
| 20260504210918 | 15 | 67 | 4.8 | 14.5 | 0.00 | 0.00 | 0.00 | 52 | 1084.3 |
| 20260504210903 | 15 | 66 | 4.8 | 14.5 | 0.00 | 0.00 | 0.00 | 52 | 1084.3 |
| 20260504210803 | 15 | 67 | 4.8 | 14.5 | 0.00 | 0.00 | 0.00 | 52 | 1084.2 |
| 20260504210603 | 15 | 68 | 4.8 | 14.5 | 0.00 | 0.00 | 0.00 | 52 | 1084.5 |
| 20260504210503 | 15 | 68 | 4.8 | 14.5 | 0.00 | 0.00 | 0.00 | 52 | 1084.3 |
| 20260504210403 | 15 | 69 | 4.8 | 14.5 | 0.00 | 0.00 | 0.00 | 52 | 1084.3 |
| 20260504210218 | 16 | 70 | 4.8 | 11.3 | 0.00 | 0.00 | 0.00 | 52 | 1084.3 |
| 20260504210203 | 16 | 69 | 4.8 | 11.3 | 0.00 | 0.00 | 0.00 | 52 | 1084.3 |
| 20260504205903 | 16 | 67 | 4.8 | 11.3 | 0.00 | 0.00 | 0.00 | 52 | 1084.3 |
| 20260504205803 | 16 | 67 | 4.8 | 12.9 | 0.00 | 0.00 | 0.00 | 52 | 1084.4 |
| 20260504205703 | 16 | 67 | 4.8 | 12.9 | 0.00 | 0.00 | 0.00 | 52 | 1084.6 |
| 20260504205603 | 16 | 66 | 4.8 | 12.9 | 0.00 | 0.00 | 0.00 | 52 | 1084.3 |
| 20260504205503 | 16 | 67 | 4.8 | 12.9 | 0.00 | 0.00 | 0.00 | 52 | 1084.4 |
| 20260504205403 | 16 | 67 | 4.8 | 12.9 | 0.00 | 0.00 | 0.00 | 52 | 1084.2 |
| 20260504205304 | 16 | 68 | 4.8 | 12.9 | 0.00 | 0.00 | 0.00 | 52 | 1084.5 |
| 20260504205103 | 16 | 69 | 4.8 | 12.9 | 0.00 | 0.00 | 0.00 | 52 | 1084.7 |
| 20260504205003 | 16 | 69 | 4.8 | 12.9 | 0.00 | 0.00 | 0.00 | 52 | 1084.5 |
| 20260504204903 | 16 | 67 | 4.8 | 12.9 | 0.00 | 0.00 | 0.00 | 52 | 1084.6 |
| 20260504204803 | 16 | 66 | 4.8 | 12.9 | 0.00 | 0.00 | 0.00 | 52 | 1084.4 |
| 20260504204703 | 16 | 64 | 3.2 | 12.9 | 0.00 | 0.00 | 0.00 | 51 | 1084.5 |
| 20260504204603 | 16 | 65 | 4.8 | 12.9 | 0.00 | 0.00 | 0.00 | 51 | 1084.2 |
| 20260504204503 | 16 | 66 | 4.8 | 12.9 | 0.00 | 0.00 | 0.00 | 51 | 1084.6 |
| 20260504204417 | 16 | 68 | 4.8 | 12.9 | 0.00 | 0.00 | 0.00 | 51 | 1084.6 |
| 20260504204403 | 16 | 67 | 4.8 | 12.9 | 0.00 | 0.00 | 0.00 | 51 | 1084.6 |
| 20260504204303 | 16 | 67 | 4.8 | 12.9 | 0.00 | 0.00 | 0.00 | 51 | 1084.5 |
| 20260504204218 | 16 | 68 | 4.8 | 12.9 | 0.00 | 0.00 | 0.00 | 51 | 1084.5 |
| 20260504204103 | 16 | 66 | 4.8 | 12.9 | 0.00 | 0.00 | 0.00 | 51 | 1084.5 |
| 20260504204017 | 16 | 66 | 4.8 | 12.9 | 0.00 | 0.00 | 0.00 | 51 | 1084.5 |
| 20260504203903 | 16 | 70 | 3.2 | 9.7 | 0.00 | 0.00 | 0.00 | 51 | 1084.6 |
| 20260504203818 | 16 | 71 | 3.2 | 9.7 | 0.00 | 0.00 | 0.00 | 51 | 1084.5 |
| 20260504203703 | 16 | 72 | 4.8 | 11.3 | 0.00 | 0.00 | 0.00 | 51 | 1084.9 |
| 20260504203503 | 16 | 73 | 4.8 | 12.9 | 0.00 | 0.00 | 0.00 | 51 | 1084.6 |
| 20260504203403 | 16 | 71 | 4.8 | 12.9 | 0.00 | 0.00 | 0.00 | 51 | 1084.5 |
| 20260504203303 | 16 | 72 | 4.8 | 14.5 | 0.00 | 0.00 | 0.00 | 51 | 1084.4 |
| 20260504203218 | 16 | 74 | 6.4 | 14.5 | 0.00 | 0.00 | 0.00 | 51 | 1084.6 |
| 20260504203203 | 16 | 75 | 6.4 | 14.5 | 0.00 | 0.00 | 0.00 | 51 | 1084.6 |
| 20260504202903 | 16 | 78 | 6.4 | 14.5 | 0.00 | 0.00 | 0.00 | 51 | 1084.5 |
| 20260504202803 | 16 | 77 | 6.4 | 14.5 | 0.00 | 0.00 | 0.00 | 51 | 1084.3 |
| 20260504202603 | 16 | 77 | 6.4 | 17.7 | 0.00 | 0.00 | 0.00 | 51 | 1084.3 |
| 20260504202503 | 16 | 77 | 8.0 | 17.7 | 0.00 | 0.00 | 0.00 | 51 | 1084.6 |
| 20260504202403 | 16 | 77 | 8.0 | 17.7 | 0.00 | 0.00 | 0.00 | 51 | 1084.6 |
| 20260504202304 | 16 | 77 | 6.4 | 17.7 | 0.00 | 0.00 | 0.00 | 51 | 1084.5 |
| 20260504202203 | 16 | 75 | 6.4 | 17.7 | 0.00 | 0.00 | 0.00 | 51 | 1084.5 |
| 20260504202103 | 16 | 75 | 6.4 | 17.7 | 0.00 | 0.00 | 0.00 | 51 | 1084.7 |
| 20260504202003 | 16 | 76 | 6.4 | 17.7 | 0.00 | 0.00 | 0.00 | 51 | 1084.6 |
| 20260504201903 | 16 | 75 | 6.4 | 17.7 | 0.00 | 0.00 | 0.00 | 51 | 1084.7 |
| 20260504201703 | 16 | 77 | 6.4 | 17.7 | 0.00 | 0.00 | 0.00 | 51 | 1084.5 |
| 20260504201603 | 16 | 78 | 6.4 | 16.1 | 0.00 | 0.00 | 0.00 | 51 | 1084.5 |
| 20260504201503 | 16 | 78 | 6.4 | 16.1 | 0.00 | 0.00 | 0.00 | 51 | 1084.7 |
| 20260504201416 | 16 | 79 | 6.4 | 16.1 | 0.00 | 0.00 | 0.00 | 51 | 1084.5 |
| 20260504201303 | 16 | 80 | 6.4 | 16.1 | 0.00 | 0.00 | 0.00 | 51 | 1084.7 |
| 20260504201103 | 16 | 82 | 6.4 | 16.1 | 0.00 | 0.00 | 0.00 | 51 | 1084.7 |
| 20260504201003 | 16 | 82 | 6.4 | 16.1 | 0.00 | 0.00 | 0.00 | 51 | 1084.7 |
| 20260504200903 | 16 | 80 | 6.4 | 16.1 | 0.00 | 0.00 | 0.00 | 51 | 1084.7 |
| 20260504200803 | 16 | 81 | 6.4 | 16.1 | 0.00 | 0.00 | 0.00 | 51 | 1084.7 |
| 20260504200703 | 16 | 81 | 6.4 | 16.1 | 0.00 | 0.00 | 0.00 | 51 | 1084.6 |
| 20260504200603 | 16 | 79 | 6.4 | 16.1 | 0.00 | 0.00 | 0.00 | 51 | 1084.6 |
| 20260504200503 | 16 | 78 | 6.4 | 16.1 | 0.00 | 0.00 | 0.00 | 51 | 1084.9 |
| 20260504200403 | 16 | 79 | 6.4 | 16.1 | 0.00 | 0.00 | 0.00 | 51 | 1084.4 |
| 20260504200203 | 16 | 75 | 6.4 | 16.1 | 0.00 | 0.00 | 0.00 | 51 | 1084.6 |
| 20260504195903 | 16 | 77 | 8.0 | 16.1 | 0.00 | 0.00 | 0.00 | 51 | 1084.6 |
| 20260504195803 | 16 | 77 | 8.0 | 14.5 | 0.00 | 0.00 | 0.00 | 51 | 1084.5 |
| 20260504195603 | 16 | 80 | 8.0 | 14.5 | 0.00 | 0.00 | 0.00 | 51 | 1084.7 |
| 20260504195503 | 16 | 82 | 8.0 | 14.5 | 0.00 | 0.00 | 0.00 | 51 | 1084.6 |
| 20260504195403 | 16 | 81 | 8.0 | 14.5 | 0.00 | 0.00 | 0.00 | 52 | 1084.6 |
| 20260504195317 | 16 | 83 | 8.0 | 14.5 | 0.00 | 0.00 | 0.00 | 52 | 1084.6 |
| 20260504195304 | 16 | 82 | 8.0 | 14.5 | 0.00 | 0.00 | 0.00 | 52 | 1084.6 |
| 20260504195203 | 16 | 82 | 8.0 | 14.5 | 0.00 | 0.00 | 0.00 | 52 | 1084.9 |
| 20260504195003 | 16 | 80 | 6.4 | 14.5 | 0.00 | 0.00 | 0.00 | 52 | 1084.6 |
| 20260504194903 | 16 | 80 | 6.4 | 14.5 | 0.00 | 0.00 | 0.00 | 51 | 1084.9 |
| 20260504194803 | 16 | 79 | 6.4 | 14.5 | 0.00 | 0.00 | 0.00 | 52 | 1084.6 |
| 20260504194716 | 16 | 77 | 6.4 | 12.9 | 0.00 | 0.00 | 0.00 | 52 | 1084.6 |
| 20260504194703 | 16 | 78 | 6.4 | 12.9 | 0.00 | 0.00 | 0.00 | 52 | 1084.6 |
| 20260504194617 | 16 | 78 | 6.4 | 12.9 | 0.00 | 0.00 | 0.00 | 52 | 1084.6 |
| 20260504194518 | 16 | 76 | 4.8 | 12.9 | 0.00 | 0.00 | 0.00 | 52 | 1084.5 |
| 20260504194203 | 16 | 76 | 4.8 | 14.5 | 0.00 | 0.00 | 0.00 | 52 | 1084.6 |
| 20260504194103 | 17 | 79 | 6.4 | 14.5 | 0.00 | 0.00 | 0.00 | 52 | 1084.6 |
| 20260504194003 | 17 | 78 | 6.4 | 14.5 | 0.00 | 0.00 | 0.00 | 52 | 1084.6 |
| 20260504193917 | 17 | 77 | 6.4 | 14.5 | 0.00 | 0.00 | 0.00 | 51 | 1084.7 |
| 20260504193903 | 17 | 76 | 6.4 | 14.5 | 0.00 | 0.00 | 0.00 | 51 | 1084.7 |
| 20260504193803 | 17 | 77 | 6.4 | 14.5 | 0.00 | 0.00 | 0.00 | 51 | 1084.7 |
| 20260504193718 | 17 | 76 | 6.4 | 14.5 | 0.00 | 0.00 | 0.00 | 51 | 1084.5 |
| 20260504193603 | 17 | 74 | 6.4 | 14.5 | 0.00 | 0.00 | 0.00 | 52 | 1084.7 |
| 20260504193403 | 17 | 74 | 6.4 | 12.9 | 0.00 | 0.00 | 0.00 | 51 | 1084.6 |
| 20260504193303 | 17 | 75 | 6.4 | 12.9 | 0.00 | 0.00 | 0.00 | 51 | 1084.7 |
| 20260504193203 | 17 | 73 | 6.4 | 12.9 | 0.00 | 0.00 | 0.00 | 51 | 1084.6 |
| 20260504193003 | 17 | 67 | 6.4 | 12.9 | 0.00 | 0.00 | 0.00 | 52 | 1084.6 |
| 20260504192903 | 17 | 67 | 4.8 | 12.9 | 0.00 | 0.00 | 0.00 | 52 | 1084.6 |
| 20260504192703 | 17 | 66 | 4.8 | 11.3 | 0.00 | 0.00 | 0.00 | 52 | 1084.6 |
| 20260504192603 | 17 | 67 | 4.8 | 11.3 | 0.00 | 0.00 | 0.00 | 51 | 1084.9 |
| 20260504192503 | 17 | 67 | 4.8 | 12.9 | 0.00 | 0.00 | 0.00 | 51 | 1084.6 |
| 20260504192403 | 17 | 65 | 4.8 | 12.9 | 0.00 | 0.00 | 0.00 | 51 | 1084.6 |
| 20260504192304 | 17 | 67 | 4.8 | 12.9 | 0.00 | 0.00 | 0.00 | 51 | 1085.0 |
| 20260504192203 | 17 | 66 | 4.8 | 12.9 | 0.00 | 0.00 | 0.00 | 51 | 1084.7 |
| 20260504192103 | 17 | 69 | 4.8 | 12.9 | 0.00 | 0.00 | 0.00 | 51 | 1084.9 |
| 20260504191917 | 17 | 70 | 4.8 | 12.9 | 0.00 | 0.00 | 0.00 | 51 | 1084.6 |
| 20260504191903 | 17 | 71 | 4.8 | 12.9 | 0.00 | 0.00 | 0.00 | 51 | 1084.6 |
| 20260504191803 | 17 | 71 | 4.8 | 12.9 | 0.00 | 0.00 | 0.00 | 51 | 1084.6 |
| 20260504191503 | 17 | 71 | 4.8 | 11.3 | 0.00 | 0.00 | 0.00 | 51 | 1084.6 |
| 20260504191403 | 17 | 73 | 4.8 | 11.3 | 0.00 | 0.00 | 0.00 | 51 | 1084.6 |
| 20260504191317 | 17 | 72 | 4.8 | 11.3 | 0.00 | 0.00 | 0.00 | 51 | 1084.5 |
| 20260504191303 | 17 | 71 | 4.8 | 11.3 | 0.00 | 0.00 | 0.00 | 51 | 1084.5 |
| 20260504191203 | 17 | 72 | 4.8 | 11.3 | 0.00 | 0.00 | 0.00 | 51 | 1084.7 |
| 20260504191118 | 17 | 71 | 4.8 | 11.3 | 0.00 | 0.00 | 0.00 | 51 | 1084.9 |
| 20260504191003 | 17 | 72 | 4.8 | 11.3 | 0.00 | 0.00 | 0.00 | 51 | 1084.7 |
| 20260504190803 | 17 | 70 | 4.8 | 11.3 | 0.00 | 0.00 | 0.00 | 51 | 1084.7 |
| 20260504190703 | 17 | 70 | 4.8 | 11.3 | 0.00 | 0.00 | 0.00 | 51 | 1084.9 |
| 20260504190503 | 17 | 70 | 4.8 | 11.3 | 0.00 | 0.00 | 0.00 | 51 | 1084.7 |
| 20260504190403 | 17 | 71 | 4.8 | 11.3 | 0.00 | 0.00 | 0.00 | 51 | 1084.7 |
| 20260504190303 | 17 | 72 | 4.8 | 14.5 | 0.00 | 0.00 | 0.00 | 51 | 1084.6 |
| 20260504190203 | 17 | 73 | 4.8 | 14.5 | 0.00 | 0.00 | 0.00 | 51 | 1084.6 |
| 20260504190003 | 17 | 73 | 4.8 | 14.5 | 0.00 | 0.00 | 0.00 | 51 | 1084.5 |
| 20260504185903 | 17 | 74 | 4.8 | 14.5 | 0.00 | 0.00 | 0.00 | 51 | 1085.0 |
| 20260504185803 | 17 | 72 | 4.8 | 14.5 | 0.00 | 0.00 | 0.00 | 51 | 1084.7 |
| 20260504185703 | 17 | 72 | 4.8 | 14.5 | 0.00 | 0.00 | 0.00 | 51 | 1084.7 |
| 20260504185604 | 17 | 73 | 4.8 | 14.5 | 0.00 | 0.00 | 0.00 | 50 | 1084.6 |
| 20260504185503 | 17 | 71 | 4.8 | 14.5 | 0.00 | 0.00 | 0.00 | 51 | 1084.7 |
| 20260504185403 | 17 | 71 | 4.8 | 14.5 | 0.00 | 0.00 | 0.00 | 51 | 1084.6 |
| 20260504185304 | 17 | 70 | 4.8 | 11.3 | 0.00 | 0.00 | 0.00 | 51 | 1084.6 |
| 20260504185103 | 17 | 70 | 4.8 | 11.3 | 0.00 | 0.00 | 0.00 | 51 | 1084.7 |
| 20260504185016 | 17 | 70 | 4.8 | 11.3 | 0.00 | 0.00 | 0.00 | 51 | 1084.6 |
| 20260504185003 | 17 | 70 | 3.2 | 11.3 | 0.00 | 0.00 | 0.00 | 51 | 1084.6 |
| 20260504184903 | 17 | 70 | 4.8 | 9.7 | 0.00 | 0.00 | 0.00 | 51 | 1084.6 |
| 20260504184603 | 17 | 72 | 4.8 | 9.7 | 0.00 | 0.00 | 0.00 | 51 | 1084.5 |
| 20260504184517 | 17 | 72 | 4.8 | 9.7 | 0.00 | 0.00 | 0.00 | 51 | 1084.6 |
| 20260504184503 | 17 | 73 | 4.8 | 9.7 | 0.00 | 0.00 | 0.00 | 51 | 1084.6 |
| 20260504184203 | 18 | 69 | 4.8 | 9.7 | 0.00 | 0.00 | 0.00 | 51 | 1084.7 |
| 20260504184103 | 18 | 67 | 4.8 | 9.7 | 0.00 | 0.00 | 0.00 | 51 | 1084.6 |
| 20260504184003 | 18 | 66 | 4.8 | 9.7 | 0.00 | 0.00 | 0.00 | 51 | 1084.7 |
| 20260504183903 | 18 | 65 | 4.8 | 9.7 | 0.00 | 0.00 | 0.00 | 51 | 1084.5 |
| 20260504183803 | 18 | 64 | 4.8 | 9.7 | 0.00 | 0.00 | 0.00 | 51 | 1084.5 |
| 20260504183703 | 18 | 63 | 3.2 | 9.7 | 0.00 | 0.00 | 0.00 | 51 | 1084.5 |
| 20260504183617 | 18 | 62 | 3.2 | 9.7 | 0.00 | 0.00 | 0.00 | 51 | 1084.4 |
| 20260504183603 | 18 | 62 | 3.2 | 9.7 | 0.00 | 0.00 | 0.00 | 51 | 1084.6 |
| 20260504183503 | 18 | 62 | 3.2 | 6.4 | 0.00 | 0.00 | 0.00 | 51 | 1084.6 |
| 20260504183303 | 18 | 65 | 3.2 | 6.4 | 0.00 | 0.00 | 0.00 | 51 | 1084.4 |
| 20260504183203 | 18 | 62 | 3.2 | 9.7 | 0.00 | 0.00 | 0.00 | 50 | 1084.5 |
| 20260504183103 | 18 | 63 | 3.2 | 9.7 | 0.00 | 0.00 | 0.00 | 50 | 1084.7 |
| 20260504183003 | 18 | 66 | 3.2 | 9.7 | 0.00 | 0.00 | 0.00 | 50 | 1084.4 |
| 20260504182903 | 18 | 66 | 3.2 | 9.7 | 0.00 | 0.00 | 0.00 | 50 | 1084.5 |
| 20260504182803 | 18 | 68 | 3.2 | 9.7 | 0.00 | 0.00 | 0.00 | 49 | 1084.7 |
| 20260504182703 | 18 | 70 | 3.2 | 9.7 | 0.00 | 0.00 | 0.00 | 50 | 1084.5 |
| 20260504182603 | 18 | 72 | 3.2 | 9.7 | 0.00 | 0.00 | 0.00 | 49 | 1084.6 |
| 20260504182503 | 18 | 71 | 3.2 | 9.7 | 0.00 | 0.00 | 0.00 | 49 | 1084.6 |
| 20260504182403 | 18 | 70 | 3.2 | 9.7 | 0.00 | 0.00 | 0.00 | 49 | 1084.7 |
| 20260504182304 | 18 | 71 | 3.2 | 9.7 | 0.00 | 0.00 | 0.00 | 49 | 1084.4 |
| 20260504182203 | 18 | 77 | 3.2 | 9.7 | 0.00 | 0.00 | 0.00 | 49 | 1084.6 |
| 20260504182003 | 19 | 81 | 3.2 | 9.7 | 0.00 | 0.00 | 0.00 | 49 | 1084.5 |
| 20260504181903 | 19 | 81 | 3.2 | 9.7 | 0.00 | 0.00 | 0.00 | 49 | 1084.5 |
| 20260504181803 | 19 | 83 | 3.2 | 11.3 | 0.00 | 0.00 | 0.00 | 48 | 1084.4 |
| 20260504181704 | 19 | 86 | 4.8 | 11.3 | 0.00 | 0.00 | 0.00 | 48 | 1084.4 |
| 20260504181603 | 19 | 84 | 4.8 | 11.3 | 0.00 | 0.00 | 0.00 | 48 | 1084.5 |
| 20260504181503 | 19 | 84 | 4.8 | 11.3 | 0.00 | 0.00 | 0.00 | 48 | 1084.2 |
| 20260504181403 | 19 | 83 | 4.8 | 11.3 | 0.00 | 0.00 | 0.00 | 48 | 1084.5 |
| 20260504181303 | 19 | 85 | 4.8 | 11.3 | 0.00 | 0.00 | 0.00 | 48 | 1084.6 |
| 20260504181203 | 19 | 82 | 4.8 | 11.3 | 0.00 | 0.00 | 0.00 | 48 | 1084.6 |
| 20260504181103 | 19 | 80 | 4.8 | 11.3 | 0.00 | 0.00 | 0.00 | 48 | 1084.4 |
| 20260504181003 | 19 | 78 | 4.8 | 11.3 | 0.00 | 0.00 | 0.00 | 48 | 1084.2 |
| 20260504180903 | 19 | 79 | 4.8 | 11.3 | 0.00 | 0.00 | 0.00 | 48 | 1084.6 |
| 20260504180803 | 19 | 76 | 4.8 | 9.7 | 0.00 | 0.00 | 0.00 | 48 | 1084.5 |
| 20260504180703 | 19 | 74 | 3.2 | 9.7 | 0.00 | 0.00 | 0.00 | 48 | 1084.3 |
| 20260504180603 | 19 | 76 | 3.2 | 9.7 | 0.00 | 0.00 | 0.00 | 48 | 1084.3 |
| 20260504180503 | 20 | 77 | 3.2 | 9.7 | 0.00 | 0.00 | 0.00 | 48 | 1084.5 |
| 20260504180403 | 20 | 79 | 3.2 | 9.7 | 0.00 | 0.00 | 0.00 | 48 | 1084.4 |
| 20260504180303 | 20 | 78 | 3.2 | 9.7 | 0.00 | 0.00 | 0.00 | 48 | 1084.5 |
| 20260504180203 | 20 | 80 | 3.2 | 9.7 | 0.00 | 0.00 | 0.00 | 48 | 1084.3 |
| 20260504180103 | 20 | 83 | 3.2 | 6.4 | 0.00 | 0.00 | 0.00 | 48 | 1084.5 |
| 20260504180003 | 20 | 84 | 3.2 | 9.7 | 0.00 | 0.00 | 0.00 | 48 | 1084.5 |
| 20260504175903 | 20 | 86 | 3.2 | 9.7 | 0.00 | 0.00 | 0.00 | 48 | 1084.3 |
| 20260504175803 | 20 | 86 | 3.2 | 9.7 | 0.00 | 0.00 | 0.00 | 48 | 1084.5 |
| 20260504175703 | 20 | 87 | 3.2 | 9.7 | 0.00 | 0.00 | 0.00 | 48 | 1084.4 |
| 20260504175603 | 20 | 85 | 3.2 | 9.7 | 0.00 | 0.00 | 0.00 | 48 | 1084.3 |
| 20260504175503 | 20 | 84 | 3.2 | 9.7 | 0.00 | 0.00 | 0.00 | 48 | 1084.5 |
| 20260504175418 | 20 | 85 | 3.2 | 9.7 | 0.00 | 0.00 | 0.00 | 47 | 1084.6 |
| 20260504175403 | 20 | 86 | 3.2 | 9.7 | 0.00 | 0.00 | 0.00 | 47 | 1084.6 |
| 20260504175304 | 20 | 86 | 4.8 | 9.7 | 0.00 | 0.00 | 0.00 | 47 | 1084.4 |
| 20260504175103 | 20 | 85 | 4.8 | 9.7 | 0.00 | 0.00 | 0.00 | 48 | 1084.5 |
| 20260504175003 | 20 | 89 | 4.8 | 9.7 | 0.00 | 0.00 | 0.00 | 47 | 1084.5 |
| 20260504174903 | 20 | 90 | 4.8 | 11.3 | 0.00 | 0.00 | 0.00 | 48 | 1084.6 |
| 20260504174803 | 20 | 91 | 4.8 | 11.3 | 0.00 | 0.00 | 0.00 | 48 | 1084.2 |
| 20260504174703 | 20 | 89 | 4.8 | 12.9 | 0.00 | 0.00 | 0.00 | 47 | 1084.3 |
| 20260504174517 | 20 | 94 | 4.8 | 12.9 | 0.00 | 0.00 | 0.00 | 47 | 1084.4 |
| 20260504174503 | 20 | 93 | 4.8 | 12.9 | 0.00 | 0.00 | 0.00 | 47 | 1084.4 |
| 20260504174403 | 20 | 92 | 4.8 | 12.9 | 0.00 | 0.00 | 0.00 | 48 | 1084.4 |